Wetterdaten: Montag, 31.08.2015
Datum Zeit Temp. Aussen Temp. o. S. +5cm Feuchte Auss BlattFeu 1 Luftdruck Regen Sonnenschein Regendauer Solar Windben Empfang
31.08.2015 00:00 23,2 C 22,8 C 21,1 C 91 % 1 lf 1013,6 hPa 0,0 l/m 0 min 0 min 0 W/m 0,0 km/h (0 Bft) 95,65 %
31.08.2015 00:02 23,2 C 22,8 C 21,1 C 92 % 1 lf 1013,7 hPa 0,0 l/m 0 min 0 min 0 W/m 0,0 km/h (0 Bft) 97,67 %
31.08.2015 00:05 23,2 C 22,8 C 21,1 C 92 % 1 lf 1013,7 hPa 0,0 l/m 0 min 0 min 0 W/m 0,0 km/h (0 Bft) 97,67 %
31.08.2015 00:06 23,2 C 22,8 C 21,1 C 92 % 1 lf 1013,7 hPa 0,0 l/m 0 min 0 min 0 W/m 0,0 km/h (0 Bft) 97,89 %
31.08.2015 00:08 23,2 C 22,8 C 21,1 C 92 % 1 lf 1013,9 hPa 0,0 l/m 0 min 0 min 0 W/m 0,0 km/h (0 Bft) 97,83 %
31.08.2015 00:10 23,1 C 22,8 C 21,1 C 92 % 1 lf 1013,9 hPa 0,0 l/m 0 min 0 min 0 W/m 0,0 km/h (0 Bft) 97,87 %
31.08.2015 00:12 23,1 C 22,2 C 21,1 C 92 % 1 lf 1013,9 hPa 0,0 l/m 0 min 0 min 0 W/m 0,0 km/h (0 Bft) 95,74 %
31.08.2015 00:14 23,1 C 22,2 C 21,1 C 92 % 1 lf 1013,8 hPa 0,0 l/m 0 min 0 min 0 W/m 0,0 km/h (0 Bft) 95,74 %
31.08.2015 00:16 23,1 C 22,2 C 21,1 C 92 % 1 lf 1013,9 hPa 0,0 l/m 0 min 0 min 0 W/m 0,0 km/h (0 Bft) 97,87 %
31.08.2015 00:18 23,1 C 22,2 C 21,1 C 92 % 1 lf 1013,9 hPa 0,0 l/m 0 min 0 min 0 W/m 0,0 km/h (0 Bft) 97,87 %
31.08.2015 00:20 23,1 C 22,2 C 21,1 C 92 % 1 lf 1013,9 hPa 0,0 l/m 0 min 0 min 0 W/m 0,0 km/h (0 Bft) 97,14 %
31.08.2015 00:22 23,0 C 22,2 C 21,1 C 92 % 1 lf 1013,9 hPa 0,0 l/m 0 min 0 min 0 W/m 0,0 km/h (0 Bft) 96,55 %
31.08.2015 00:24 23,0 C 22,2 C 21,1 C 92 % 1 lf 1014,0 hPa 0,0 l/m 0 min 0 min 0 W/m 0,0 km/h (0 Bft) 97,87 %
31.08.2015 00:26 23,0 C 22,2 C 21,1 C 92 % 1 lf 1014,1 hPa 0,0 l/m 0 min 0 min 0 W/m 0,0 km/h (0 Bft) 97,14 %
31.08.2015 00:28 23,0 C 22,2 C 21,1 C 92 % 1 lf 1014,1 hPa 0,0 l/m 0 min 0 min 0 W/m 0,0 km/h (0 Bft) 98,31 %
31.08.2015 00:30 23,0 C 22,2 C 21,1 C 93 % 0 lf 1014,2 hPa 0,0 l/m 0 min 0 min 0 W/m 4,2 km/h (1 Bft) 93,62 %
31.08.2015 00:32 23,0 C 22,2 C 21,1 C 93 % 0 lf 1014,2 hPa 0,0 l/m 0 min 0 min 0 W/m 8,4 km/h (2 Bft) 100,00 %
31.08.2015 00:34 23,0 C 22,8 C 21,1 C 93 % 0 lf 1014,3 hPa 0,0 l/m 0 min 0 min 0 W/m 12,6 km/h (3 Bft) 100,00 %
31.08.2015 00:36 23,0 C 22,8 C 21,1 C 93 % 1 lf 1014,5 hPa 0,0 l/m 0 min 0 min 0 W/m 29,3 km/h (5 Bft) 100,00 %
31.08.2015 00:38 23,0 C 22,8 C 21,7 C 93 % 0 lf 1014,5 hPa 0,0 l/m 0 min 0 min 0 W/m 23,0 km/h (4 Bft) 93,62 %
31.08.2015 00:40 23,1 C 22,8 C 21,7 C 93 % 1 lf 1014,6 hPa 0,0 l/m 0 min 0 min 0 W/m 20,9 km/h (4 Bft) 95,74 %
31.08.2015 00:42 23,1 C 22,8 C 21,7 C 94 % 0 lf 1014,5 hPa 0,0 l/m 0 min 0 min 0 W/m 18,8 km/h (3 Bft) 97,87 %
31.08.2015 00:44 23,1 C 23,3 C 21,7 C 94 % 0 lf 1014,5 hPa 0,0 l/m 0 min 0 min 0 W/m 10,5 km/h (2 Bft) 96,55 %
31.08.2015 00:46 23,2 C 23,3 C 21,7 C 94 % 0 lf 1014,5 hPa 0,0 l/m 0 min 0 min 0 W/m 10,5 km/h (2 Bft) 97,14 %
31.08.2015 00:48 23,2 C 23,3 C 21,7 C 94 % 0 lf 1014,7 hPa 0,0 l/m 0 min 0 min 0 W/m 14,6 km/h (3 Bft) 95,74 %
31.08.2015 00:50 23,2 C 23,3 C 21,7 C 94 % 0 lf 1014,6 hPa 0,0 l/m 0 min 0 min 0 W/m 18,8 km/h (3 Bft) 94,92 %
31.08.2015 00:52 23,2 C 23,3 C 21,7 C 94 % 0 lf 1014,5 hPa 0,0 l/m 0 min 0 min 0 W/m 14,6 km/h (3 Bft) 91,43 %
31.08.2015 00:54 23,2 C 23,3 C 21,7 C 94 % 0 lf 1014,5 hPa 0,0 l/m 0 min 0 min 0 W/m 14,6 km/h (3 Bft) 96,55 %
31.08.2015 00:56 23,3 C 23,3 C 21,7 C 94 % 0 lf 1014,5 hPa 0,0 l/m 0 min 0 min 0 W/m 14,6 km/h (3 Bft) 95,74 %
31.08.2015 00:58 23,3 C 23,3 C 21,7 C 94 % 0 lf 1014,5 hPa 0,0 l/m 0 min 0 min 0 W/m 16,7 km/h (3 Bft) 94,29 %
31.08.2015 01:00 23,3 C 23,3 C 21,7 C 94 % 0 lf 1014,5 hPa 0,0 l/m 0 min 0 min 0 W/m 14,6 km/h (3 Bft) 95,74 %
31.08.2015 01:02 23,3 C 23,3 C 21,7 C 94 % 0 lf 1014,4 hPa 0,0 l/m 0 min 0 min 0 W/m 16,7 km/h (3 Bft) 93,22 %
31.08.2015 01:04 23,3 C 23,3 C 21,7 C 94 % 0 lf 1014,4 hPa 0,0 l/m 0 min 0 min 0 W/m 18,8 km/h (3 Bft) 100,00 %
31.08.2015 01:06 23,3 C 23,3 C 21,7 C 94 % 0 lf 1014,4 hPa 0,0 l/m 0 min 0 min 0 W/m 14,6 km/h (3 Bft) 93,62 %
31.08.2015 01:08 23,3 C 23,3 C 21,7 C 94 % 0 lf 1014,5 hPa 0,0 l/m 0 min 0 min 0 W/m 16,7 km/h (3 Bft) 94,83 %
31.08.2015 01:10 23,3 C 23,3 C 21,7 C 94 % 0 lf 1014,5 hPa 0,0 l/m 0 min 0 min 0 W/m 12,6 km/h (3 Bft) 91,43 %
31.08.2015 01:12 23,3 C 22,8 C 21,7 C 94 % 0 lf 1014,5 hPa 0,0 l/m 0 min 0 min 0 W/m 16,7 km/h (3 Bft) 93,62 %
31.08.2015 01:14 23,2 C 22,8 C 21,7 C 94 % 0 lf 1014,5 hPa 0,0 l/m 0 min 0 min 0 W/m 16,7 km/h (3 Bft) 93,62 %
31.08.2015 01:16 23,2 C 22,8 C 21,7 C 94 % 0 lf 1014,6 hPa 0,0 l/m 0 min 0 min 0 W/m 18,8 km/h (3 Bft) 93,22 %
31.08.2015 01:18 23,2 C 22,8 C 21,7 C 94 % 0 lf 1014,5 hPa 0,0 l/m 0 min 0 min 0 W/m 20,9 km/h (4 Bft) 93,48 %
31.08.2015 01:20 23,1 C 22,8 C 21,7 C 94 % 0 lf 1014,5 hPa 0,0 l/m 0 min 0 min 0 W/m 18,8 km/h (3 Bft) 95,74 %
31.08.2015 01:22 23,0 C 22,8 C 21,7 C 93 % 0 lf 1014,6 hPa 0,0 l/m 0 min 0 min 0 W/m 33,5 km/h (5 Bft) 94,29 %
31.08.2015 01:24 22,8 C 22,8 C 21,7 C 92 % 0 lf 1014,5 hPa 0,0 l/m 0 min 0 min 0 W/m 29,3 km/h (5 Bft) 93,62 %
31.08.2015 01:26 22,7 C 22,8 C 21,7 C 91 % 0 lf 1014,5 hPa 0,0 l/m 0 min 0 min 0 W/m 25,1 km/h (4 Bft) 88,14 %
31.08.2015 01:28 22,6 C 22,8 C 21,7 C 89 % 0 lf 1014,5 hPa 0,0 l/m 0 min 0 min 0 W/m 20,9 km/h (4 Bft) 94,29 %
31.08.2015 01:30 22,6 C 22,8 C 21,7 C 87 % 0 lf 1014,4 hPa 0,0 l/m 0 min 0 min 0 W/m 25,1 km/h (4 Bft) 94,83 %
31.08.2015 01:32 22,6 C 22,8 C 21,7 C 86 % 0 lf 1014,4 hPa 0,0 l/m 0 min 0 min 0 W/m 23,0 km/h (4 Bft) 97,22 %
31.08.2015 01:34 22,5 C 22,8 C 21,7 C 84 % 0 lf 1014,4 hPa 0,0 l/m 0 min 0 min 0 W/m 29,3 km/h (5 Bft) 94,83 %
31.08.2015 01:36 22,6 C 22,8 C 21,7 C 83 % 0 lf 1014,3 hPa 0,0 l/m 0 min 0 min 0 W/m 23,0 km/h (4 Bft) 95,74 %
31.08.2015 01:38 22,6 C 22,8 C 21,1 C 83 % 0 lf 1014,2 hPa 0,0 l/m 0 min 0 min 0 W/m 23,0 km/h (4 Bft) 93,62 %
31.08.2015 01:40 22,6 C 22,8 C 21,1 C 82 % 0 lf 1014,2 hPa 0,0 l/m 0 min 0 min 0 W/m 18,8 km/h (3 Bft) 97,87 %
31.08.2015 01:42 22,6 C 22,8 C 21,1 C 81 % 0 lf 1014,2 hPa 0,0 l/m 0 min 0 min 0 W/m 18,8 km/h (3 Bft) 97,14 %
31.08.2015 01:44 22,6 C 22,8 C 21,1 C 80 % 0 lf 1014,2 hPa 0,0 l/m 0 min 0 min 0 W/m 20,9 km/h (4 Bft) 93,10 %
31.08.2015 01:46 22,6 C 22,2 C 21,1 C 79 % 0 lf 1014,1 hPa 0,0 l/m 0 min 0 min 0 W/m 23,0 km/h (4 Bft) 97,14 %
31.08.2015 01:48 22,6 C 22,2 C 21,1 C 79 % 0 lf 1014,1 hPa 0,0 l/m 0 min 0 min 0 W/m 18,8 km/h (3 Bft) 95,74 %
31.08.2015 01:50 22,5 C 22,2 C 21,1 C 78 % 0 lf 1014,0 hPa 0,0 l/m 0 min 0 min 0 W/m 16,7 km/h (3 Bft) 95,74 %
31.08.2015 01:52 22,5 C 22,2 C 20,6 C 78 % 0 lf 1014,0 hPa 0,0 l/m 0 min 0 min 0 W/m 14,6 km/h (3 Bft) 97,87 %
31.08.2015 01:54 22,5 C 22,2 C 20,6 C 78 % 0 lf 1013,9 hPa 0,0 l/m 0 min 0 min 0 W/m 14,6 km/h (3 Bft) 97,87 %
31.08.2015 01:56 22,4 C 22,2 C 20,6 C 78 % 0 lf 1013,9 hPa 0,0 l/m 0 min 0 min 0 W/m 12,6 km/h (3 Bft) 98,28 %
31.08.2015 01:58 22,4 C 22,2 C 20,6 C 78 % 0 lf 1013,8 hPa 0,0 l/m 0 min 0 min 0 W/m 8,4 km/h (2 Bft) 97,87 %
31.08.2015 02:00 22,4 C 22,2 C 20,6 C 78 % 0 lf 1013,7 hPa 0,0 l/m 0 min 0 min 0 W/m 14,6 km/h (3 Bft) 94,29 %
31.08.2015 02:02 22,4 C 21,7 C 20,6 C 78 % 0 lf 1013,6 hPa 0,0 l/m 0 min 0 min 0 W/m 12,6 km/h (3 Bft) 95,74 %
31.08.2015 02:04 22,4 C 21,7 C 20,6 C 78 % 0 lf 1013,7 hPa 0,0 l/m 0 min 0 min 0 W/m 6,3 km/h (2 Bft) 100,00 %
31.08.2015 02:06 22,3 C 21,7 C 20,0 C 79 % 0 lf 1013,6 hPa 0,0 l/m 0 min 0 min 0 W/m 6,3 km/h (2 Bft) 100,00 %
31.08.2015 02:08 22,3 C 21,7 C 20,0 C 79 % 0 lf 1013,5 hPa 0,0 l/m 0 min 0 min 0 W/m 8,4 km/h (2 Bft) 96,55 %
31.08.2015 02:10 22,3 C 21,1 C 20,0 C 79 % 0 lf 1013,5 hPa 0,0 l/m 0 min 0 min 0 W/m 8,4 km/h (2 Bft) 97,87 %
31.08.2015 02:12 22,3 C 21,1 C 20,0 C 79 % 0 lf 1013,5 hPa 0,0 l/m 0 min 0 min 0 W/m 10,5 km/h (2 Bft) 97,14 %
31.08.2015 02:14 22,3 C 21,1 C 19,4 C 79 % 0 lf 1013,4 hPa 0,0 l/m 0 min 0 min 0 W/m 8,4 km/h (2 Bft) 100,00 %
31.08.2015 02:16 22,2 C 21,1 C 19,4 C 79 % 0 lf 1013,3 hPa 0,0 l/m 0 min 0 min 0 W/m 10,5 km/h (2 Bft) 100,00 %
31.08.2015 02:18 22,2 C 21,1 C 19,4 C 79 % 0 lf 1013,3 hPa 0,0 l/m 0 min 0 min 0 W/m 12,6 km/h (3 Bft) 100,00 %
31.08.2015 02:20 22,2 C 21,1 C 19,4 C 79 % 0 lf 1013,3 hPa 0,0 l/m 0 min 0 min 0 W/m 10,5 km/h (2 Bft) 100,00 %
31.08.2015 02:22 22,1 C 21,1 C 19,4 C 79 % 0 lf 1013,3 hPa 0,0 l/m 0 min 0 min 0 W/m 8,4 km/h (2 Bft) 100,00 %
31.08.2015 02:24 22,1 C 21,1 C 19,4 C 79 % 0 lf 1013,3 hPa 0,0 l/m 0 min 0 min 0 W/m 8,4 km/h (2 Bft) 100,00 %
31.08.2015 02:26 22,1 C 21,1 C 19,4 C 79 % 0 lf 1013,3 hPa 0,0 l/m 0 min 0 min 0 W/m 6,3 km/h (2 Bft) 97,87 %
31.08.2015 02:28 22,1 C 21,1 C 19,4 C 79 % 0 lf 1013,3 hPa 0,0 l/m 0 min 0 min 0 W/m 6,3 km/h (2 Bft) 97,87 %
31.08.2015 02:30 22,0 C 21,1 C 19,4 C 79 % 0 lf 1013,3 hPa 0,0 l/m 0 min 0 min 0 W/m 8,4 km/h (2 Bft) 95,74 %
31.08.2015 02:32 21,9 C 21,1 C 19,4 C 79 % 0 lf 1013,3 hPa 0,0 l/m 0 min 0 min 0 W/m 8,4 km/h (2 Bft) 95,74 %
31.08.2015 02:34 21,9 C 21,1 C 19,4 C 79 % 0 lf 1013,3 hPa 0,0 l/m 0 min 0 min 0 W/m 8,4 km/h (2 Bft) 93,48 %
31.08.2015 02:36 21,9 C 21,1 C 18,9 C 79 % 0 lf 1013,2 hPa 0,0 l/m 0 min 0 min 0 W/m 6,3 km/h (2 Bft) 97,87 %
31.08.2015 02:38 21,8 C 20,6 C 18,9 C 79 % 0 lf 1013,3 hPa 0,0 l/m 0 min 0 min 0 W/m 4,2 km/h (1 Bft) 97,87 %
31.08.2015 02:40 21,8 C 20,6 C 18,9 C 79 % 0 lf 1013,3 hPa 0,0 l/m 0 min 0 min 0 W/m 6,3 km/h (2 Bft) 97,87 %
31.08.2015 02:42 21,8 C 20,6 C 18,9 C 78 % 0 lf 1013,4 hPa 0,0 l/m 0 min 0 min 0 W/m 4,2 km/h (1 Bft) 97,87 %
31.08.2015 02:44 21,7 C 21,1 C 18,9 C 78 % 0 lf 1013,3 hPa 0,0 l/m 0 min 0 min 0 W/m 6,3 km/h (2 Bft) 97,87 %
31.08.2015 02:46 21,7 C 21,1 C 18,9 C 78 % 0 lf 1013,3 hPa 0,0 l/m 0 min 0 min 0 W/m 6,3 km/h (2 Bft) 97,83 %
31.08.2015 02:48 21,6 C 21,1 C 18,9 C 78 % 0 lf 1013,3 hPa 0,0 l/m 0 min 0 min 0 W/m 8,4 km/h (2 Bft) 93,62 %
31.08.2015 02:50 21,6 C 21,1 C 18,9 C 77 % 0 lf 1013,3 hPa 0,0 l/m 0 min 0 min 0 W/m 6,3 km/h (2 Bft) 91,49 %
31.08.2015 02:52 21,6 C 21,1 C 18,9 C 77 % 0 lf 1013,3 hPa 0,0 l/m 0 min 0 min 0 W/m 6,3 km/h (2 Bft) 95,74 %
31.08.2015 02:54 21,5 C 21,1 C 19,4 C 77 % 0 lf 1013,3 hPa 0,0 l/m 0 min 0 min 0 W/m 10,5 km/h (2 Bft) 93,62 %
31.08.2015 02:56 21,5 C 21,1 C 19,4 C 77 % 0 lf 1013,2 hPa 0,0 l/m 0 min 0 min 0 W/m 10,5 km/h (2 Bft) 95,65 %
31.08.2015 02:58 21,4 C 21,1 C 18,9 C 77 % 0 lf 1013,2 hPa 0,0 l/m 0 min 0 min 0 W/m 10,5 km/h (2 Bft) 95,74 %
31.08.2015 03:00 21,4 C 21,1 C 18,9 C 77 % 0 lf 1013,2 hPa 0,0 l/m 0 min 0 min 0 W/m 10,5 km/h (2 Bft) 93,62 %
31.08.2015 03:02 21,4 C 20,6 C 18,9 C 77 % 0 lf 1013,2 hPa 0,0 l/m 0 min 0 min 0 W/m 10,5 km/h (2 Bft) 93,62 %
31.08.2015 03:04 21,4 C 20,6 C 18,9 C 78 % 0 lf 1013,1 hPa 0,0 l/m 0 min 0 min 0 W/m 10,5 km/h (2 Bft) 95,74 %
31.08.2015 03:06 21,3 C 21,1 C 18,9 C 78 % 0 lf 1013,2 hPa 0,0 l/m 0 min 0 min 0 W/m 10,5 km/h (2 Bft) 95,74 %
31.08.2015 03:08 21,3 C 21,1 C 18,9 C 78 % 0 lf 1013,2 hPa 0,0 l/m 0 min 0 min 0 W/m 10,5 km/h (2 Bft) 95,65 %
31.08.2015 03:10 21,3 C 20,6 C 18,9 C 78 % 0 lf 1013,2 hPa 0,0 l/m 0 min 0 min 0 W/m 6,3 km/h (2 Bft) 89,36 %
31.08.2015 03:12 21,2 C 20,6 C 18,9 C 78 % 0 lf 1013,2 hPa 0,0 l/m 0 min 0 min 0 W/m 6,3 km/h (2 Bft) 97,87 %
31.08.2015 03:14 21,2 C 20,6 C 18,9 C 78 % 0 lf 1013,3 hPa 0,0 l/m 0 min 0 min 0 W/m 4,2 km/h (1 Bft) 97,87 %
31.08.2015 03:16 21,2 C 20,6 C 18,9 C 78 % 0 lf 1013,3 hPa 0,0 l/m 0 min 0 min 0 W/m 10,5 km/h (2 Bft) 97,87 %
31.08.2015 03:18 21,2 C 20,6 C 18,9 C 78 % 0 lf 1013,2 hPa 0,0 l/m 0 min 0 min 0 W/m 8,4 km/h (2 Bft) 97,87 %
31.08.2015 03:20 21,2 C 20,6 C 18,9 C 78 % 0 lf 1013,2 hPa 0,0 l/m 0 min 0 min 0 W/m 6,3 km/h (2 Bft) 95,65 %
31.08.2015 03:22 21,1 C 20,6 C 18,9 C 79 % 0 lf 1013,2 hPa 0,0 l/m 0 min 0 min 0 W/m 10,5 km/h (2 Bft) 95,74 %
31.08.2015 03:24 21,1 C 20,6 C 18,9 C 79 % 0 lf 1013,2 hPa 0,0 l/m 0 min 0 min 0 W/m 4,2 km/h (1 Bft) 97,87 %
31.08.2015 03:26 21,1 C 20,6 C 18,9 C 79 % 0 lf 1013,2 hPa 0,0 l/m 0 min 0 min 0 W/m 10,5 km/h (2 Bft) 97,87 %
31.08.2015 03:28 21,1 C 20,6 C 18,9 C 79 % 0 lf 1013,3 hPa 0,0 l/m 0 min 0 min 0 W/m 4,2 km/h (1 Bft) 100,00 %
31.08.2015 03:30 21,0 C 20,0 C 18,3 C 79 % 0 lf 1013,3 hPa 0,0 l/m 0 min 0 min 0 W/m 6,3 km/h (2 Bft) 97,87 %
31.08.2015 03:32 21,0 C 20,0 C 18,3 C 79 % 0 lf 1013,3 hPa 0,0 l/m 0 min 0 min 0 W/m 6,3 km/h (2 Bft) 100,00 %
31.08.2015 03:34 21,0 C 20,0 C 18,3 C 79 % 0 lf 1013,3 hPa 0,0 l/m 0 min 0 min 0 W/m 4,2 km/h (1 Bft) 100,00 %
31.08.2015 03:36 21,0 C 20,0 C 18,3 C 79 % 0 lf 1013,4 hPa 0,0 l/m 0 min 0 min 0 W/m 4,2 km/h (1 Bft) 95,74 %
31.08.2015 03:38 20,9 C 20,0 C 18,3 C 79 % 0 lf 1013,4 hPa 0,0 l/m 0 min 0 min 0 W/m 6,3 km/h (2 Bft) 100,00 %
31.08.2015 03:40 20,9 C 20,0 C 18,3 C 79 % 0 lf 1013,4 hPa 0,0 l/m 0 min 0 min 0 W/m 6,3 km/h (2 Bft) 97,87 %
31.08.2015 03:42 20,9 C 20,0 C 18,3 C 80 % 0 lf 1013,4 hPa 0,0 l/m 0 min 0 min 0 W/m 4,2 km/h (1 Bft) 97,87 %
31.08.2015 03:44 20,9 C 20,0 C 18,3 C 80 % 0 lf 1013,3 hPa 0,0 l/m 0 min 0 min 0 W/m 4,2 km/h (1 Bft) 100,00 %
31.08.2015 03:46 20,8 C 19,4 C 18,3 C 80 % 0 lf 1013,2 hPa 0,0 l/m 0 min 0 min 0 W/m 2,1 km/h (1 Bft) 97,87 %
31.08.2015 03:48 20,8 C 19,4 C 18,3 C 80 % 0 lf 1013,3 hPa 0,0 l/m 0 min 0 min 0 W/m 0,0 km/h (0 Bft) 93,62 %
31.08.2015 03:50 20,8 C 19,4 C 18,3 C 80 % 0 lf 1013,2 hPa 0,0 l/m 0 min 0 min 0 W/m 6,3 km/h (2 Bft) 95,74 %
31.08.2015 03:52 20,8 C 19,4 C 17,8 C 80 % 0 lf 1013,2 hPa 0,0 l/m 0 min 0 min 0 W/m 4,2 km/h (1 Bft) 95,83 %
31.08.2015 03:54 20,8 C 19,4 C 17,8 C 80 % 0 lf 1013,2 hPa 0,0 l/m 0 min 0 min 0 W/m 6,3 km/h (2 Bft) 97,87 %
31.08.2015 03:56 20,7 C 19,4 C 17,8 C 80 % 0 lf 1013,2 hPa 0,0 l/m 0 min 0 min 0 W/m 4,2 km/h (1 Bft) 95,65 %
31.08.2015 03:58 20,7 C 19,4 C 17,8 C 80 % 0 lf 1013,2 hPa 0,0 l/m 0 min 0 min 0 W/m 6,3 km/h (2 Bft) 91,49 %
31.08.2015 04:00 20,7 C 19,4 C 17,8 C 80 % 0 lf 1013,2 hPa 0,0 l/m 0 min 0 min 0 W/m 4,2 km/h (1 Bft) 97,87 %
31.08.2015 04:02 20,7 C 19,4 C 17,8 C 80 % 0 lf 1013,2 hPa 0,0 l/m 0 min 0 min 0 W/m 4,2 km/h (1 Bft) 100,00 %
31.08.2015 04:04 20,6 C 19,4 C 17,8 C 81 % 0 lf 1013,1 hPa 0,0 l/m 0 min 0 min 0 W/m 6,3 km/h (2 Bft) 100,00 %
31.08.2015 04:06 20,6 C 19,4 C 18,3 C 81 % 0 lf 1013,1 hPa 0,0 l/m 0 min 0 min 0 W/m 6,3 km/h (2 Bft) 97,87 %
31.08.2015 04:08 20,6 C 19,4 C 18,3 C 81 % 0 lf 1013,3 hPa 0,0 l/m 0 min 0 min 0 W/m 8,4 km/h (2 Bft) 97,96 %
31.08.2015 04:10 20,6 C 19,4 C 18,3 C 82 % 0 lf 1013,4 hPa 0,0 l/m 0 min 0 min 0 W/m 8,4 km/h (2 Bft) 97,87 %
31.08.2015 04:12 20,5 C 19,4 C 18,3 C 82 % 0 lf 1013,4 hPa 0,0 l/m 0 min 0 min 0 W/m 12,6 km/h (3 Bft) 97,87 %
31.08.2015 04:14 20,5 C 19,4 C 18,3 C 82 % 0 lf 1013,7 hPa 0,0 l/m 0 min 0 min 0 W/m 20,9 km/h (4 Bft) 97,87 %
31.08.2015 04:16 20,4 C 19,4 C 18,3 C 82 % 0 lf 1013,6 hPa 0,0 l/m 0 min 0 min 0 W/m 23,0 km/h (4 Bft) 97,87 %
31.08.2015 04:18 20,4 C 19,4 C 18,3 C 82 % 0 lf 1013,4 hPa 0,0 l/m 0 min 0 min 0 W/m 16,7 km/h (3 Bft) 95,65 %
31.08.2015 04:20 20,3 C 19,4 C 18,3 C 82 % 0 lf 1013,3 hPa 0,0 l/m 0 min 0 min 0 W/m 6,3 km/h (2 Bft) 93,62 %
31.08.2015 04:22 20,3 C 19,4 C 18,3 C 82 % 0 lf 1013,4 hPa 0,0 l/m 0 min 0 min 0 W/m 10,5 km/h (2 Bft) 97,87 %
31.08.2015 04:24 20,3 C 19,4 C 18,3 C 82 % 0 lf 1013,5 hPa 0,0 l/m 0 min 0 min 0 W/m 14,6 km/h (3 Bft) 97,87 %
31.08.2015 04:26 20,2 C 19,4 C 18,3 C 83 % 0 lf 1013,5 hPa 0,0 l/m 0 min 0 min 0 W/m 16,7 km/h (3 Bft) 95,74 %
31.08.2015 04:28 20,2 C 19,4 C 18,3 C 83 % 0 lf 1013,2 hPa 0,0 l/m 0 min 0 min 0 W/m 18,8 km/h (3 Bft) 95,74 %
31.08.2015 04:30 20,1 C 19,4 C 18,3 C 83 % 0 lf 1013,2 hPa 0,0 l/m 0 min 0 min 0 W/m 18,8 km/h (3 Bft) 97,83 %
31.08.2015 04:32 20,1 C 19,4 C 18,3 C 83 % 0 lf 1012,9 hPa 0,0 l/m 0 min 0 min 0 W/m 14,6 km/h (3 Bft) 97,87 %
31.08.2015 04:34 20,0 C 19,4 C 17,8 C 84 % 0 lf 1012,8 hPa 0,0 l/m 0 min 0 min 0 W/m 16,7 km/h (3 Bft) 95,74 %
31.08.2015 04:36 20,0 C 18,9 C 17,8 C 84 % 0 lf 1012,9 hPa 0,0 l/m 0 min 0 min 0 W/m 6,3 km/h (2 Bft) 93,62 %
31.08.2015 04:38 20,0 C 18,9 C 17,8 C 84 % 0 lf 1012,9 hPa 0,0 l/m 0 min 0 min 0 W/m 8,4 km/h (2 Bft) 97,87 %
31.08.2015 04:40 19,9 C 18,9 C 17,8 C 84 % 0 lf 1012,9 hPa 0,0 l/m 0 min 0 min 0 W/m 12,6 km/h (3 Bft) 97,87 %
31.08.2015 04:42 19,9 C 18,9 C 18,3 C 84 % 0 lf 1012,9 hPa 0,0 l/m 0 min 0 min 0 W/m 12,6 km/h (3 Bft) 100,00 %
31.08.2015 04:44 19,9 C 18,9 C 18,3 C 84 % 0 lf 1012,9 hPa 0,0 l/m 0 min 0 min 0 W/m 10,5 km/h (2 Bft) 93,62 %
31.08.2015 04:46 19,9 C 18,9 C 17,8 C 84 % 0 lf 1012,9 hPa 0,0 l/m 0 min 0 min 0 W/m 10,5 km/h (2 Bft) 95,74 %
31.08.2015 04:48 19,8 C 18,9 C 17,8 C 85 % 0 lf 1012,6 hPa 0,0 l/m 0 min 0 min 0 W/m 10,5 km/h (2 Bft) 95,74 %
31.08.2015 04:50 19,8 C 18,9 C 17,8 C 85 % 0 lf 1012,5 hPa 0,0 l/m 0 min 0 min 0 W/m 12,6 km/h (3 Bft) 95,74 %
31.08.2015 04:52 19,8 C 18,9 C 17,8 C 85 % 0 lf 1012,5 hPa 0,0 l/m 0 min 0 min 0 W/m 14,6 km/h (3 Bft) 95,74 %
31.08.2015 04:54 19,8 C 18,9 C 17,8 C 85 % 0 lf 1012,6 hPa 0,0 l/m 0 min 0 min 0 W/m 14,6 km/h (3 Bft) 93,48 %
31.08.2015 04:56 19,7 C 18,9 C 17,8 C 86 % 0 lf 1012,6 hPa 0,0 l/m 0 min 0 min 0 W/m 16,7 km/h (3 Bft) 95,74 %
31.08.2015 04:58 19,7 C 18,9 C 18,3 C 86 % 0 lf 1012,5 hPa 0,0 l/m 0 min 0 min 0 W/m 12,6 km/h (3 Bft) 95,74 %
31.08.2015 05:00 19,7 C 18,9 C 17,8 C 86 % 0 lf 1012,3 hPa 0,0 l/m 0 min 0 min 0 W/m 10,5 km/h (2 Bft) 93,62 %
31.08.2015 05:02 19,7 C 19,4 C 18,3 C 86 % 0 lf 1012,3 hPa 0,0 l/m 0 min 0 min 0 W/m 16,7 km/h (3 Bft) 93,62 %
31.08.2015 05:04 19,7 C 19,4 C 18,3 C 86 % 0 lf 1012,2 hPa 0,0 l/m 0 min 0 min 0 W/m 16,7 km/h (3 Bft) 93,62 %
31.08.2015 05:06 19,7 C 19,4 C 18,3 C 87 % 0 lf 1012,2 hPa 0,0 l/m 0 min 0 min 0 W/m 16,7 km/h (3 Bft) 95,65 %
31.08.2015 05:08 19,7 C 19,4 C 18,3 C 87 % 0 lf 1012,4 hPa 0,0 l/m 0 min 0 min 0 W/m 8,4 km/h (2 Bft) 97,87 %
31.08.2015 05:10 19,7 C 19,4 C 18,3 C 87 % 0 lf 1012,3 hPa 0,0 l/m 0 min 0 min 0 W/m 10,5 km/h (2 Bft) 95,74 %
31.08.2015 05:12 19,7 C 19,4 C 18,3 C 87 % 0 lf 1012,3 hPa 0,0 l/m 0 min 0 min 0 W/m 12,6 km/h (3 Bft) 93,62 %
31.08.2015 05:14 19,7 C 19,4 C 17,8 C 87 % 0 lf 1012,3 hPa 0,0 l/m 0 min 0 min 0 W/m 8,4 km/h (2 Bft) 89,36 %
31.08.2015 05:16 19,7 C 19,4 C 17,8 C 87 % 0 lf 1012,3 hPa 0,0 l/m 0 min 0 min 0 W/m 10,5 km/h (2 Bft) 91,30 %
31.08.2015 05:18 19,7 C 19,4 C 17,8 C 87 % 0 lf 1012,1 hPa 0,0 l/m 0 min 0 min 0 W/m 12,6 km/h (3 Bft) 93,62 %
31.08.2015 05:20 19,7 C 19,4 C 17,8 C 88 % 0 lf 1012,1 hPa 0,0 l/m 0 min 0 min 0 W/m 10,5 km/h (2 Bft) 93,62 %
31.08.2015 05:22 19,7 C 19,4 C 17,8 C 88 % 0 lf 1012,1 hPa 0,0 l/m 0 min 0 min 0 W/m 12,6 km/h (3 Bft) 93,62 %
31.08.2015 05:24 19,7 C 19,4 C 17,8 C 88 % 0 lf 1012,2 hPa 0,0 l/m 0 min 0 min 0 W/m 12,6 km/h (3 Bft) 93,62 %
31.08.2015 05:26 19,7 C 19,4 C 18,3 C 88 % 0 lf 1012,1 hPa 0,0 l/m 0 min 0 min 0 W/m 8,4 km/h (2 Bft) 91,49 %
31.08.2015 05:28 19,8 C 20,0 C 18,3 C 88 % 0 lf 1012,0 hPa 0,0 l/m 0 min 0 min 0 W/m 12,6 km/h (3 Bft) 93,48 %
31.08.2015 05:30 19,8 C 20,0 C 18,3 C 89 % 0 lf 1012,0 hPa 0,0 l/m 0 min 0 min 0 W/m 12,6 km/h (3 Bft) 95,74 %
31.08.2015 05:32 19,8 C 20,0 C 18,3 C 89 % 0 lf 1011,8 hPa 0,0 l/m 0 min 0 min 0 W/m 16,7 km/h (3 Bft) 93,62 %
31.08.2015 05:34 19,8 C 20,0 C 18,3 C 89 % 0 lf 1011,7 hPa 0,0 l/m 0 min 0 min 0 W/m 18,8 km/h (3 Bft) 93,62 %
31.08.2015 05:36 19,8 C 20,0 C 18,3 C 89 % 0 lf 1011,6 hPa 0,0 l/m 0 min 0 min 0 W/m 20,9 km/h (4 Bft) 95,74 %
31.08.2015 05:38 19,8 C 20,0 C 18,3 C 89 % 0 lf 1011,6 hPa 0,0 l/m 0 min 0 min 0 W/m 16,7 km/h (3 Bft) 100,00 %
31.08.2015 05:40 19,8 C 20,0 C 18,3 C 89 % 0 lf 1011,6 hPa 0,0 l/m 0 min 0 min 0 W/m 14,6 km/h (3 Bft) 95,65 %
31.08.2015 05:42 19,8 C 20,0 C 18,3 C 89 % 0 lf 1011,7 hPa 0,0 l/m 0 min 0 min 0 W/m 8,4 km/h (2 Bft) 97,87 %
31.08.2015 05:44 19,8 C 20,0 C 18,3 C 89 % 0 lf 1011,7 hPa 0,0 l/m 0 min 0 min 0 W/m 8,4 km/h (2 Bft) 95,74 %
31.08.2015 05:46 19,8 C 19,4 C 18,3 C 89 % 0 lf 1011,8 hPa 0,0 l/m 0 min 0 min 0 W/m 10,5 km/h (2 Bft) 97,87 %
31.08.2015 05:48 19,9 C 19,4 C 18,3 C 89 % 0 lf 1011,8 hPa 0,0 l/m 0 min 0 min 0 W/m 8,4 km/h (2 Bft) 97,87 %
31.08.2015 05:50 19,9 C 19,4 C 17,8 C 89 % 0 lf 1011,8 hPa 0,0 l/m 0 min 0 min 0 W/m 6,3 km/h (2 Bft) 97,87 %
31.08.2015 05:52 19,9 C 19,4 C 17,8 C 90 % 0 lf 1011,7 hPa 0,0 l/m 0 min 0 min 0 W/m 4,2 km/h (1 Bft) 97,87 %
31.08.2015 05:54 19,9 C 19,4 C 17,8 C 90 % 0 lf 1011,6 hPa 0,0 l/m 0 min 0 min 0 W/m 8,4 km/h (2 Bft) 97,87 %
31.08.2015 05:56 19,9 C 19,4 C 17,8 C 90 % 0 lf 1011,5 hPa 0,0 l/m 0 min 0 min 0 W/m 12,6 km/h (3 Bft) 95,74 %
31.08.2015 05:58 19,9 C 19,4 C 17,8 C 90 % 0 lf 1011,5 hPa 0,0 l/m 0 min 0 min 0 W/m 12,6 km/h (3 Bft) 97,87 %
31.08.2015 06:00 19,9 C 19,4 C 17,8 C 90 % 0 lf 1011,4 hPa 0,0 l/m 0 min 0 min 0 W/m 6,3 km/h (2 Bft) 100,00 %
31.08.2015 06:02 19,9 C 19,4 C 17,8 C 90 % 0 lf 1011,4 hPa 0,0 l/m 0 min 0 min 0 W/m 14,6 km/h (3 Bft) 100,00 %
31.08.2015 06:05 19,9 C 19,4 C 18,3 C 90 % 0 lf 1011,4 hPa 0,0 l/m 0 min 0 min 0 W/m 10,5 km/h (2 Bft) 98,51 %
31.08.2015 06:06 19,9 C 19,4 C 18,3 C 90 % 0 lf 1011,4 hPa 0,0 l/m 0 min 0 min 0 W/m 6,3 km/h (2 Bft) 100,00 %
31.08.2015 06:08 19,9 C 19,4 C 18,3 C 90 % 0 lf 1011,5 hPa 0,0 l/m 0 min 0 min 0 W/m 4,2 km/h (1 Bft) 97,87 %
31.08.2015 06:10 19,9 C 19,4 C 17,8 C 90 % 0 lf 1011,6 hPa 0,0 l/m 0 min 0 min 0 W/m 2,1 km/h (1 Bft) 93,62 %
31.08.2015 06:12 19,8 C 19,4 C 17,8 C 90 % 0 lf 1011,6 hPa 0,0 l/m 0 min 0 min 0 W/m 2,1 km/h (1 Bft) 100,00 %
31.08.2015 06:14 19,8 C 19,4 C 17,8 C 90 % 0 lf 1011,6 hPa 0,0 l/m 0 min 0 min 0 W/m 10,5 km/h (2 Bft) 100,00 %
31.08.2015 06:16 19,8 C 19,4 C 17,8 C 90 % 0 lf 1011,6 hPa 0,0 l/m 0 min 0 min 0 W/m 6,3 km/h (2 Bft) 100,00 %
31.08.2015 06:18 19,8 C 19,4 C 17,8 C 90 % 0 lf 1011,7 hPa 0,0 l/m 0 min 0 min 0 W/m 4,2 km/h (1 Bft) 100,00 %
31.08.2015 06:20 19,8 C 19,4 C 17,8 C 90 % 0 lf 1011,6 hPa 0,0 l/m 0 min 0 min 0 W/m 6,3 km/h (2 Bft) 100,00 %
31.08.2015 06:22 19,8 C 19,4 C 17,8 C 90 % 0 lf 1011,5 hPa 0,0 l/m 0 min 0 min 0 W/m 8,4 km/h (2 Bft) 95,74 %
31.08.2015 06:24 19,8 C 19,4 C 17,8 C 90 % 0 lf 1011,5 hPa 0,0 l/m 0 min 0 min 0 W/m 6,3 km/h (2 Bft) 97,87 %
31.08.2015 06:26 19,8 C 19,4 C 17,8 C 90 % 0 lf 1011,5 hPa 0,0 l/m 0 min 0 min 0 W/m 8,4 km/h (2 Bft) 100,00 %
31.08.2015 06:28 19,8 C 19,4 C 17,8 C 90 % 0 lf 1011,5 hPa 0,0 l/m 0 min 0 min 0 W/m 8,4 km/h (2 Bft) 100,00 %
31.08.2015 06:30 19,8 C 19,4 C 17,8 C 91 % 0 lf 1011,5 hPa 0,0 l/m 0 min 0 min 0 W/m 10,5 km/h (2 Bft) 100,00 %
31.08.2015 06:32 19,8 C 19,4 C 17,8 C 91 % 0 lf 1011,5 hPa 0,0 l/m 0 min 0 min 0 W/m 8,4 km/h (2 Bft) 95,74 %
31.08.2015 06:34 19,8 C 19,4 C 17,8 C 91 % 0 lf 1011,4 hPa 0,0 l/m 0 min 0 min 0 W/m 10,5 km/h (2 Bft) 97,87 %
31.08.2015 06:36 19,7 C 19,4 C 17,8 C 91 % 0 lf 1011,5 hPa 0,0 l/m 0 min 0 min 0 W/m 6,3 km/h (2 Bft) 100,00 %
31.08.2015 06:38 19,7 C 18,9 C 17,8 C 91 % 0 lf 1011,5 hPa 0,0 l/m 0 min 0 min 0 W/m 6,3 km/h (2 Bft) 97,87 %
31.08.2015 06:40 19,7 C 18,9 C 17,8 C 91 % 0 lf 1011,5 hPa 0,0 l/m 0 min 0 min 0 W/m 4,2 km/h (1 Bft) 97,83 %
31.08.2015 06:42 19,7 C 18,9 C 17,8 C 91 % 0 lf 1011,5 hPa 0,0 l/m 0 min 0 min 0 W/m 4,2 km/h (1 Bft) 95,74 %
31.08.2015 06:44 19,7 C 18,9 C 17,8 C 91 % 0 lf 1011,5 hPa 0,0 l/m 0 min 0 min 3 W/m 6,3 km/h (2 Bft) 97,87 %
31.08.2015 06:46 19,7 C 18,9 C 17,2 C 91 % 0 lf 1011,4 hPa 0,0 l/m 0 min 0 min 5 W/m 4,2 km/h (1 Bft) 100,00 %
31.08.2015 06:48 19,7 C 18,9 C 17,2 C 91 % 0 lf 1011,4 hPa 0,0 l/m 0 min 0 min 6 W/m 6,3 km/h (2 Bft) 100,00 %
31.08.2015 06:50 19,7 C 18,9 C 17,2 C 91 % 0 lf 1011,4 hPa 0,0 l/m 0 min 0 min 8 W/m 6,3 km/h (2 Bft) 97,87 %
31.08.2015 06:52 19,6 C 18,9 C 17,2 C 91 % 0 lf 1011,3 hPa 0,0 l/m 0 min 0 min 9 W/m 6,3 km/h (2 Bft) 93,48 %
31.08.2015 06:54 19,6 C 18,9 C 17,2 C 91 % 0 lf 1011,3 hPa 0,0 l/m 0 min 0 min 10 W/m 12,6 km/h (3 Bft) 93,62 %
31.08.2015 06:56 19,6 C 18,9 C 17,2 C 91 % 0 lf 1011,2 hPa 0,0 l/m 0 min 0 min 12 W/m 6,3 km/h (2 Bft) 93,62 %
31.08.2015 06:58 19,6 C 18,9 C 17,2 C 91 % 0 lf 1011,3 hPa 0,0 l/m 0 min 0 min 12 W/m 6,3 km/h (2 Bft) 95,74 %
31.08.2015 07:00 19,6 C 18,9 C 17,2 C 91 % 0 lf 1011,3 hPa 0,0 l/m 0 min 0 min 14 W/m 6,3 km/h (2 Bft) 93,62 %
31.08.2015 07:02 19,6 C 18,9 C 17,2 C 91 % 0 lf 1011,3 hPa 0,0 l/m 0 min 0 min 15 W/m 4,2 km/h (1 Bft) 95,65 %
31.08.2015 07:04 19,6 C 18,9 C 17,8 C 91 % 0 lf 1011,3 hPa 0,0 l/m 0 min 0 min 16 W/m 6,3 km/h (2 Bft) 95,74 %
31.08.2015 07:06 19,5 C 18,9 C 17,2 C 91 % 0 lf 1011,4 hPa 0,0 l/m 0 min 0 min 17 W/m 6,3 km/h (2 Bft) 93,62 %
31.08.2015 07:08 19,5 C 18,9 C 17,8 C 91 % 0 lf 1011,3 hPa 0,0 l/m 0 min 0 min 18 W/m 6,3 km/h (2 Bft) 95,74 %
31.08.2015 07:10 19,5 C 18,9 C 17,8 C 91 % 0 lf 1011,2 hPa 0,0 l/m 0 min 0 min 19 W/m 6,3 km/h (2 Bft) 95,74 %
31.08.2015 07:12 19,5 C 18,9 C 17,2 C 91 % 0 lf 1011,2 hPa 0,0 l/m 0 min 0 min 24 W/m 6,3 km/h (2 Bft) 93,62 %
31.08.2015 07:14 19,4 C 18,9 C 17,2 C 92 % 0 lf 1011,2 hPa 0,0 l/m 2 min 0 min 32 W/m 6,3 km/h (2 Bft) 95,65 %
31.08.2015 07:16 19,4 C 18,9 C 17,2 C 92 % 1 lf 1011,1 hPa 0,0 l/m 2 min 0 min 36 W/m 6,3 km/h (2 Bft) 91,49 %
31.08.2015 07:18 19,4 C 18,9 C 17,2 C 92 % 1 lf 1011,2 hPa 0,0 l/m 2 min 0 min 40 W/m 6,3 km/h (2 Bft) 91,49 %
31.08.2015 07:20 19,4 C 18,9 C 17,2 C 92 % 1 lf 1011,2 hPa 0,0 l/m 2 min 0 min 44 W/m 4,2 km/h (1 Bft) 93,62 %
31.08.2015 07:22 19,4 C 18,9 C 17,2 C 92 % 1 lf 1011,1 hPa 0,0 l/m 2 min 0 min 43 W/m 4,2 km/h (1 Bft) 95,74 %
31.08.2015 07:24 19,4 C 18,9 C 17,2 C 92 % 1 lf 1011,1 hPa 0,0 l/m 2 min 0 min 49 W/m 4,2 km/h (1 Bft) 97,87 %
31.08.2015 07:26 19,4 C 18,9 C 17,2 C 92 % 1 lf 1011,1 hPa 0,0 l/m 2 min 0 min 56 W/m 4,2 km/h (1 Bft) 95,65 %
31.08.2015 07:28 19,4 C 18,9 C 17,2 C 92 % 1 lf 1011,1 hPa 0,0 l/m 0 min 0 min 46 W/m 4,2 km/h (1 Bft) 95,74 %
31.08.2015 07:30 19,4 C 18,9 C 17,2 C 92 % 1 lf 1011,1 hPa 0,0 l/m 2 min 0 min 61 W/m 4,2 km/h (1 Bft) 97,87 %
31.08.2015 07:32 19,4 C 18,9 C 17,2 C 92 % 1 lf 1011,0 hPa 0,0 l/m 2 min 0 min 70 W/m 4,2 km/h (1 Bft) 95,74 %
31.08.2015 07:34 19,3 C 18,9 C 17,2 C 92 % 1 lf 1011,0 hPa 0,0 l/m 2 min 0 min 75 W/m 6,3 km/h (2 Bft) 97,87 %
31.08.2015 07:36 19,3 C 18,9 C 17,2 C 92 % 1 lf 1011,0 hPa 0,0 l/m 2 min 0 min 79 W/m 4,2 km/h (1 Bft) 97,87 %
31.08.2015 07:38 19,3 C 18,9 C 17,2 C 92 % 1 lf 1011,0 hPa 0,0 l/m 2 min 0 min 83 W/m 4,2 km/h (1 Bft) 97,83 %
31.08.2015 07:40 19,3 C 18,9 C 17,2 C 92 % 1 lf 1010,9 hPa 0,0 l/m 2 min 0 min 84 W/m 2,1 km/h (1 Bft) 97,87 %
31.08.2015 07:42 19,3 C 19,4 C 17,2 C 92 % 1 lf 1010,9 hPa 0,0 l/m 2 min 0 min 92 W/m 2,1 km/h (1 Bft) 97,87 %
31.08.2015 07:44 19,3 C 19,4 C 17,2 C 92 % 1 lf 1010,8 hPa 0,0 l/m 2 min 0 min 97 W/m 6,3 km/h (2 Bft) 100,00 %
31.08.2015 07:46 19,3 C 19,4 C 17,2 C 93 % 1 lf 1010,7 hPa 0,0 l/m 2 min 0 min 90 W/m 6,3 km/h (2 Bft) 100,00 %
31.08.2015 07:48 19,3 C 19,4 C 17,2 C 93 % 1 lf 1010,7 hPa 0,0 l/m 2 min 0 min 100 W/m 6,3 km/h (2 Bft) 100,00 %
31.08.2015 07:50 19,3 C 19,4 C 17,8 C 93 % 1 lf 1010,7 hPa 0,0 l/m 2 min 0 min 88 W/m 8,4 km/h (2 Bft) 97,83 %
31.08.2015 07:52 19,3 C 19,4 C 17,8 C 93 % 0 lf 1010,7 hPa 0,0 l/m 2 min 0 min 109 W/m 12,6 km/h (3 Bft) 95,74 %
31.08.2015 07:54 19,3 C 19,4 C 17,8 C 93 % 0 lf 1010,7 hPa 0,0 l/m 2 min 0 min 96 W/m 6,3 km/h (2 Bft) 97,87 %
31.08.2015 07:56 19,3 C 19,4 C 17,8 C 93 % 0 lf 1010,8 hPa 0,0 l/m 2 min 0 min 90 W/m 6,3 km/h (2 Bft) 95,74 %
31.08.2015 07:58 19,3 C 19,4 C 17,8 C 93 % 0 lf 1010,7 hPa 0,0 l/m 0 min 0 min 87 W/m 6,3 km/h (2 Bft) 95,74 %
31.08.2015 08:00 19,3 C 20,0 C 17,8 C 93 % 0 lf 1010,7 hPa 0,0 l/m 2 min 0 min 109 W/m 4,2 km/h (1 Bft) 97,87 %
31.08.2015 08:02 19,4 C 20,0 C 17,8 C 93 % 0 lf 1010,7 hPa 0,0 l/m 2 min 0 min 102 W/m 6,3 km/h (2 Bft) 95,65 %
31.08.2015 08:04 19,4 C 20,0 C 17,8 C 93 % 0 lf 1010,6 hPa 0,0 l/m 2 min 0 min 99 W/m 6,3 km/h (2 Bft) 93,62 %
31.08.2015 08:06 19,4 C 20,0 C 17,8 C 94 % 0 lf 1010,6 hPa 0,0 l/m 0 min 0 min 85 W/m 4,2 km/h (1 Bft) 97,92 %
31.08.2015 08:08 19,4 C 20,0 C 17,8 C 94 % 0 lf 1010,5 hPa 0,0 l/m 0 min 0 min 100 W/m 8,4 km/h (2 Bft) 91,49 %
31.08.2015 08:10 19,4 C 20,0 C 18,3 C 94 % 0 lf 1010,5 hPa 0,0 l/m 2 min 0 min 123 W/m 12,6 km/h (3 Bft) 97,87 %
31.08.2015 08:12 19,5 C 20,0 C 18,3 C 94 % 0 lf 1010,5 hPa 0,0 l/m 2 min 0 min 149 W/m 12,6 km/h (3 Bft) 95,74 %
31.08.2015 08:14 19,5 C 20,0 C 18,3 C 94 % 0 lf 1010,4 hPa 0,0 l/m 2 min 0 min 150 W/m 14,6 km/h (3 Bft) 95,65 %
31.08.2015 08:16 19,6 C 20,0 C 18,3 C 94 % 0 lf 1010,4 hPa 0,0 l/m 2 min 0 min 156 W/m 10,5 km/h (2 Bft) 95,74 %
31.08.2015 08:18 19,6 C 20,6 C 18,3 C 94 % 0 lf 1010,4 hPa 0,0 l/m 2 min 0 min 194 W/m 12,6 km/h (3 Bft) 93,62 %
31.08.2015 08:20 19,6 C 20,6 C 18,3 C 94 % 0 lf 1010,3 hPa 0,0 l/m 2 min 0 min 192 W/m 14,6 km/h (3 Bft) 93,62 %
31.08.2015 08:22 19,6 C 20,6 C 18,9 C 94 % 0 lf 1010,4 hPa 0,0 l/m 2 min 0 min 210 W/m 10,5 km/h (2 Bft) 95,74 %
31.08.2015 08:24 19,7 C 20,6 C 18,9 C 94 % 0 lf 1010,3 hPa 0,0 l/m 2 min 0 min 216 W/m 10,5 km/h (2 Bft) 95,74 %
31.08.2015 08:26 19,7 C 20,6 C 18,9 C 94 % 0 lf 1010,4 hPa 0,0 l/m 2 min 0 min 220 W/m 12,6 km/h (3 Bft) 95,65 %
31.08.2015 08:28 19,7 C 20,6 C 18,9 C 94 % 0 lf 1010,4 hPa 0,0 l/m 2 min 0 min 226 W/m 12,6 km/h (3 Bft) 93,62 %
31.08.2015 08:30 19,7 C 21,1 C 18,9 C 94 % 0 lf 1010,3 hPa 0,0 l/m 2 min 0 min 232 W/m 10,5 km/h (2 Bft) 95,74 %
31.08.2015 08:32 19,8 C 21,1 C 18,9 C 94 % 0 lf 1010,3 hPa 0,0 l/m 2 min 0 min 237 W/m 8,4 km/h (2 Bft) 95,74 %
31.08.2015 08:34 19,8 C 21,1 C 18,9 C 95 % 0 lf 1010,3 hPa 0,0 l/m 2 min 0 min 241 W/m 8,4 km/h (2 Bft) 95,74 %
31.08.2015 08:36 19,8 C 21,1 C 18,9 C 95 % 0 lf 1010,4 hPa 0,0 l/m 2 min 0 min 248 W/m 8,4 km/h (2 Bft) 93,48 %
31.08.2015 08:38 19,9 C 21,1 C 18,9 C 95 % 0 lf 1010,4 hPa 0,0 l/m 2 min 0 min 254 W/m 8,4 km/h (2 Bft) 93,62 %
31.08.2015 08:40 19,9 C 21,1 C 18,9 C 95 % 0 lf 1010,4 hPa 0,0 l/m 2 min 0 min 259 W/m 6,3 km/h (2 Bft) 89,36 %
31.08.2015 08:42 19,9 C 21,7 C 18,9 C 95 % 0 lf 1010,4 hPa 0,0 l/m 2 min 0 min 264 W/m 8,4 km/h (2 Bft) 95,74 %
31.08.2015 08:44 20,0 C 21,7 C 18,9 C 95 % 0 lf 1010,3 hPa 0,0 l/m 2 min 0 min 270 W/m 6,3 km/h (2 Bft) 97,87 %
31.08.2015 08:46 20,1 C 21,7 C 19,4 C 95 % 0 lf 1010,3 hPa 0,0 l/m 2 min 0 min 276 W/m 20,9 km/h (4 Bft) 97,87 %
31.08.2015 08:48 20,1 C 21,7 C 19,4 C 95 % 0 lf 1010,3 hPa 0,0 l/m 2 min 0 min 280 W/m 18,8 km/h (3 Bft) 97,83 %
31.08.2015 08:50 20,2 C 21,7 C 19,4 C 95 % 0 lf 1010,2 hPa 0,0 l/m 2 min 0 min 287 W/m 10,5 km/h (2 Bft) 93,62 %
31.08.2015 08:52 20,3 C 22,2 C 19,4 C 95 % 0 lf 1010,2 hPa 0,0 l/m 2 min 0 min 293 W/m 12,6 km/h (3 Bft) 93,62 %
31.08.2015 08:54 20,3 C 22,2 C 20,0 C 95 % 0 lf 1010,2 hPa 0,0 l/m 2 min 0 min 298 W/m 14,6 km/h (3 Bft) 93,62 %
31.08.2015 08:56 20,4 C 22,2 C 20,0 C 95 % 0 lf 1010,2 hPa 0,0 l/m 2 min 0 min 304 W/m 10,5 km/h (2 Bft) 93,62 %
31.08.2015 08:58 20,5 C 22,2 C 20,0 C 95 % 0 lf 1010,2 hPa 0,0 l/m 2 min 0 min 310 W/m 12,6 km/h (3 Bft) 95,74 %
31.08.2015 09:00 20,6 C 22,8 C 20,0 C 95 % 0 lf 1010,2 hPa 0,0 l/m 2 min 0 min 315 W/m 18,8 km/h (3 Bft) 95,65 %
31.08.2015 09:02 20,6 C 22,8 C 20,0 C 95 % 0 lf 1010,2 hPa 0,0 l/m 2 min 0 min 321 W/m 16,7 km/h (3 Bft) 95,74 %
31.08.2015 09:04 20,7 C 22,8 C 20,0 C 95 % 0 lf 1010,2 hPa 0,0 l/m 2 min 0 min 326 W/m 16,7 km/h (3 Bft) 93,62 %
31.08.2015 09:06 20,8 C 23,3 C 20,6 C 95 % 0 lf 1010,2 hPa 0,0 l/m 2 min 0 min 332 W/m 16,7 km/h (3 Bft) 95,74 %
31.08.2015 09:08 20,9 C 23,3 C 20,6 C 95 % 0 lf 1010,1 hPa 0,0 l/m 2 min 0 min 337 W/m 16,7 km/h (3 Bft) 95,74 %
31.08.2015 09:10 20,9 C 24,4 C 20,6 C 95 % 0 lf 1010,1 hPa 0,0 l/m 2 min 0 min 343 W/m 16,7 km/h (3 Bft) 95,74 %
31.08.2015 09:12 21,0 C 26,1 C 20,6 C 95 % 0 lf 1010,1 hPa 0,0 l/m 2 min 0 min 348 W/m 14,6 km/h (3 Bft) 97,83 %
31.08.2015 09:14 21,1 C 27,8 C 20,6 C 95 % 0 lf 1010,1 hPa 0,0 l/m 2 min 0 min 354 W/m 12,6 km/h (3 Bft) 95,74 %
31.08.2015 09:16 21,2 C 29,4 C 20,6 C 95 % 0 lf 1010,1 hPa 0,0 l/m 2 min 0 min 359 W/m 6,3 km/h (2 Bft) 95,74 %
31.08.2015 09:18 21,3 C 28,9 C 21,1 C 95 % 0 lf 1010,1 hPa 0,0 l/m 2 min 0 min 364 W/m 14,6 km/h (3 Bft) 97,87 %
31.08.2015 09:20 21,4 C 28,3 C 21,1 C 95 % 0 lf 1010,1 hPa 0,0 l/m 2 min 0 min 369 W/m 12,6 km/h (3 Bft) 93,62 %
31.08.2015 09:22 21,6 C 28,3 C 21,1 C 95 % 0 lf 1010,1 hPa 0,0 l/m 2 min 0 min 374 W/m 10,5 km/h (2 Bft) 97,87 %
31.08.2015 09:24 21,7 C 27,8 C 21,1 C 95 % 0 lf 1010,1 hPa 0,0 l/m 2 min 0 min 381 W/m 10,5 km/h (2 Bft) 97,83 %
31.08.2015 09:26 21,8 C 28,9 C 21,1 C 94 % 0 lf 1010,1 hPa 0,0 l/m 2 min 0 min 386 W/m 10,5 km/h (2 Bft) 100,00 %
31.08.2015 09:28 22,0 C 29,4 C 21,7 C 94 % 0 lf 1010,1 hPa 0,0 l/m 2 min 0 min 392 W/m 10,5 km/h (2 Bft) 100,00 %
31.08.2015 09:30 22,2 C 30,0 C 21,7 C 94 % 0 lf 1010,1 hPa 0,0 l/m 2 min 0 min 394 W/m 6,3 km/h (2 Bft) 100,00 %
31.08.2015 09:32 22,3 C 30,0 C 21,7 C 93 % 0 lf 1010,2 hPa 0,0 l/m 2 min 0 min 399 W/m 10,5 km/h (2 Bft) 97,87 %
31.08.2015 09:34 22,4 C 30,6 C 21,7 C 92 % 0 lf 1010,3 hPa 0,0 l/m 2 min 0 min 398 W/m 12,6 km/h (3 Bft) 100,00 %
31.08.2015 09:36 22,6 C 30,6 C 21,7 C 92 % 0 lf 1010,5 hPa 0,0 l/m 2 min 0 min 408 W/m 12,6 km/h (3 Bft) 97,87 %
31.08.2015 09:38 22,8 C 31,1 C 22,2 C 91 % 0 lf 1010,5 hPa 0,0 l/m 2 min 0 min 408 W/m 6,3 km/h (2 Bft) 100,00 %
31.08.2015 09:40 22,9 C 31,7 C 22,2 C 91 % 0 lf 1010,3 hPa 0,0 l/m 2 min 0 min 420 W/m 8,4 km/h (2 Bft) 97,87 %
31.08.2015 09:42 23,1 C 31,1 C 22,8 C 90 % 0 lf 1010,4 hPa 0,0 l/m 2 min 0 min 423 W/m 8,4 km/h (2 Bft) 100,00 %
31.08.2015 09:44 23,3 C 32,8 C 22,8 C 89 % 0 lf 1010,4 hPa 0,0 l/m 2 min 0 min 421 W/m 6,3 km/h (2 Bft) 100,00 %
31.08.2015 09:46 23,4 C 33,9 C 23,3 C 89 % 0 lf 1010,5 hPa 0,0 l/m 2 min 0 min 433 W/m 4,2 km/h (1 Bft) 95,65 %
31.08.2015 09:48 23,6 C 35,6 C 23,9 C 88 % 0 lf 1010,4 hPa 0,0 l/m 2 min 0 min 435 W/m 8,4 km/h (2 Bft) 100,00 %
31.08.2015 09:50 23,7 C 34,4 C 25,0 C 88 % 0 lf 1010,4 hPa 0,0 l/m 2 min 0 min 443 W/m 8,4 km/h (2 Bft) 95,74 %
31.08.2015 09:52 23,8 C 35,6 C 25,6 C 86 % 0 lf 1010,4 hPa 0,0 l/m 2 min 0 min 447 W/m 6,3 km/h (2 Bft) 100,00 %
31.08.2015 09:54 24,0 C 34,4 C 26,7 C 86 % 0 lf 1010,4 hPa 0,0 l/m 2 min 0 min 448 W/m 10,5 km/h (2 Bft) 95,74 %
31.08.2015 09:56 24,2 C 35,0 C 27,8 C 85 % 0 lf 1010,4 hPa 0,0 l/m 2 min 0 min 455 W/m 10,5 km/h (2 Bft) 97,87 %
31.08.2015 09:58 24,3 C 33,3 C 28,9 C 84 % 0 lf 1010,4 hPa 0,0 l/m 2 min 0 min 456 W/m 8,4 km/h (2 Bft) 97,87 %
31.08.2015 10:00 24,5 C 32,2 C 30,0 C 83 % 0 lf 1010,4 hPa 0,0 l/m 2 min 0 min 462 W/m 8,4 km/h (2 Bft) 97,87 %
31.08.2015 10:02 24,7 C 32,8 C 30,0 C 81 % 0 lf 1010,4 hPa 0,0 l/m 2 min 0 min 468 W/m 8,4 km/h (2 Bft) 97,87 %
31.08.2015 10:04 24,8 C 33,9 C 30,0 C 81 % 0 lf 1010,2 hPa 0,0 l/m 2 min 0 min 473 W/m 10,5 km/h (2 Bft) 97,87 %
31.08.2015 10:06 25,0 C 33,3 C 31,1 C 80 % 0 lf 1010,2 hPa 0,0 l/m 2 min 0 min 478 W/m 8,4 km/h (2 Bft) 97,87 %
31.08.2015 10:08 25,1 C 33,3 C 31,1 C 80 % 0 lf 1010,1 hPa 0,0 l/m 2 min 0 min 485 W/m 6,3 km/h (2 Bft) 95,74 %
31.08.2015 10:10 25,3 C 34,4 C 31,1 C 80 % 0 lf 1010,1 hPa 0,0 l/m 2 min 0 min 492 W/m 4,2 km/h (1 Bft) 95,65 %
31.08.2015 10:12 25,4 C 32,2 C 31,1 C 78 % 0 lf 1010,1 hPa 0,0 l/m 2 min 0 min 494 W/m 12,6 km/h (3 Bft) 95,74 %
31.08.2015 10:14 25,6 C 32,2 C 31,1 C 78 % 0 lf 1010,0 hPa 0,0 l/m 2 min 0 min 500 W/m 10,5 km/h (2 Bft) 97,87 %
31.08.2015 10:16 25,8 C 32,8 C 31,1 C 77 % 0 lf 1010,0 hPa 0,0 l/m 2 min 0 min 505 W/m 10,5 km/h (2 Bft) 97,87 %
31.08.2015 10:18 25,9 C 32,8 C 31,7 C 77 % 0 lf 1010,1 hPa 0,0 l/m 2 min 0 min 510 W/m 10,5 km/h (2 Bft) 97,87 %
31.08.2015 10:20 26,1 C 32,2 C 31,7 C 76 % 0 lf 1010,1 hPa 0,0 l/m 2 min 0 min 515 W/m 14,6 km/h (3 Bft) 97,87 %
31.08.2015 10:22 26,2 C 31,1 C 31,7 C 75 % 0 lf 1010,0 hPa 0,0 l/m 2 min 0 min 519 W/m 10,5 km/h (2 Bft) 95,65 %
31.08.2015 10:24 26,3 C 32,2 C 31,7 C 75 % 0 lf 1010,0 hPa 0,0 l/m 2 min 0 min 526 W/m 10,5 km/h (2 Bft) 97,87 %
31.08.2015 10:26 26,4 C 33,3 C 31,1 C 76 % 0 lf 1010,0 hPa 0,0 l/m 2 min 0 min 532 W/m 10,5 km/h (2 Bft) 93,62 %
31.08.2015 10:28 26,5 C 35,0 C 30,6 C 76 % 0 lf 1009,9 hPa 0,0 l/m 2 min 0 min 537 W/m 10,5 km/h (2 Bft) 95,74 %
31.08.2015 10:30 26,6 C 33,9 C 31,1 C 74 % 0 lf 1009,9 hPa 0,0 l/m 2 min 0 min 540 W/m 10,5 km/h (2 Bft) 97,87 %
31.08.2015 10:32 26,7 C 33,9 C 31,1 C 74 % 0 lf 1009,9 hPa 0,0 l/m 2 min 0 min 540 W/m 10,5 km/h (2 Bft) 95,74 %
31.08.2015 10:34 26,8 C 33,3 C 31,7 C 72 % 0 lf 1009,9 hPa 0,0 l/m 2 min 0 min 545 W/m 12,6 km/h (3 Bft) 95,65 %
31.08.2015 10:36 26,8 C 32,8 C 31,7 C 71 % 0 lf 1010,0 hPa 0,0 l/m 2 min 0 min 554 W/m 12,6 km/h (3 Bft) 93,62 %
31.08.2015 10:38 26,9 C 33,3 C 32,2 C 71 % 0 lf 1009,9 hPa 0,0 l/m 2 min 0 min 560 W/m 16,7 km/h (3 Bft) 93,62 %
31.08.2015 10:40 27,0 C 34,4 C 32,2 C 72 % 0 lf 1010,0 hPa 0,0 l/m 2 min 0 min 563 W/m 12,6 km/h (3 Bft) 95,74 %
31.08.2015 10:42 27,1 C 33,9 C 32,2 C 71 % 0 lf 1010,0 hPa 0,0 l/m 2 min 0 min 566 W/m 8,4 km/h (2 Bft) 95,74 %
31.08.2015 10:44 27,2 C 34,4 C 32,2 C 72 % 0 lf 1009,9 hPa 0,0 l/m 2 min 0 min 571 W/m 10,5 km/h (2 Bft) 95,65 %
31.08.2015 10:46 27,3 C 34,4 C 31,7 C 72 % 0 lf 1009,9 hPa 0,0 l/m 2 min 0 min 579 W/m 14,6 km/h (3 Bft) 91,49 %
31.08.2015 10:48 27,4 C 35,0 C 31,1 C 71 % 0 lf 1009,9 hPa 0,0 l/m 2 min 0 min 585 W/m 12,6 km/h (3 Bft) 93,62 %
31.08.2015 10:50 27,4 C 33,9 C 30,6 C 71 % 0 lf 1009,8 hPa 0,0 l/m 2 min 0 min 570 W/m 12,6 km/h (3 Bft) 95,74 %
31.08.2015 10:52 27,5 C 33,9 C 30,6 C 70 % 0 lf 1009,8 hPa 0,0 l/m 2 min 0 min 547 W/m 8,4 km/h (2 Bft) 93,62 %
31.08.2015 10:54 27,6 C 35,0 C 30,0 C 71 % 0 lf 1009,8 hPa 0,0 l/m 2 min 0 min 510 W/m 8,4 km/h (2 Bft) 91,49 %
31.08.2015 10:56 27,7 C 35,6 C 30,6 C 72 % 0 lf 1009,8 hPa 0,0 l/m 2 min 0 min 578 W/m 4,2 km/h (1 Bft) 93,48 %
31.08.2015 10:58 27,8 C 34,4 C 30,0 C 70 % 0 lf 1009,9 hPa 0,0 l/m 2 min 0 min 604 W/m 10,5 km/h (2 Bft) 93,62 %
31.08.2015 11:00 27,8 C 34,4 C 28,9 C 69 % 0 lf 1009,7 hPa 0,0 l/m 2 min 0 min 609 W/m 8,4 km/h (2 Bft) 91,49 %
31.08.2015 11:02 27,9 C 33,9 C 28,9 C 68 % 0 lf 1009,7 hPa 0,0 l/m 2 min 0 min 603 W/m 10,5 km/h (2 Bft) 95,74 %
31.08.2015 11:04 28,0 C 35,0 C 28,9 C 70 % 0 lf 1009,6 hPa 0,0 l/m 2 min 0 min 621 W/m 8,4 km/h (2 Bft) 95,74 %
31.08.2015 11:06 28,1 C 35,6 C 29,4 C 69 % 0 lf 1009,5 hPa 0,0 l/m 2 min 0 min 622 W/m 10,5 km/h (2 Bft) 95,74 %
31.08.2015 11:08 28,1 C 34,4 C 31,1 C 69 % 0 lf 1009,5 hPa 0,0 l/m 2 min 0 min 621 W/m 12,6 km/h (3 Bft) 95,65 %
31.08.2015 11:10 28,2 C 35,0 C 31,7 C 68 % 0 lf 1009,5 hPa 0,0 l/m 2 min 0 min 621 W/m 8,4 km/h (2 Bft) 95,74 %
31.08.2015 11:12 28,3 C 35,0 C 32,8 C 68 % 0 lf 1009,5 hPa 0,0 l/m 2 min 0 min 616 W/m 14,6 km/h (3 Bft) 95,74 %
31.08.2015 11:14 28,3 C 34,4 C 33,3 C 67 % 0 lf 1009,5 hPa 0,0 l/m 2 min 0 min 631 W/m 12,6 km/h (3 Bft) 89,36 %
31.08.2015 11:16 28,4 C 35,0 C 33,3 C 68 % 0 lf 1009,5 hPa 0,0 l/m 2 min 0 min 647 W/m 10,5 km/h (2 Bft) 97,87 %
31.08.2015 11:18 28,4 C 35,0 C 32,8 C 67 % 0 lf 1009,5 hPa 0,0 l/m 2 min 0 min 651 W/m 14,6 km/h (3 Bft) 97,87 %
31.08.2015 11:20 28,5 C 35,0 C 33,3 C 66 % 0 lf 1009,5 hPa 0,0 l/m 2 min 0 min 632 W/m 12,6 km/h (3 Bft) 97,83 %
31.08.2015 11:22 28,6 C 35,0 C 32,8 C 65 % 0 lf 1009,5 hPa 0,0 l/m 2 min 0 min 602 W/m 8,4 km/h (2 Bft) 97,87 %
31.08.2015 11:24 28,6 C 37,8 C 33,3 C 66 % 0 lf 1009,6 hPa 0,0 l/m 2 min 0 min 651 W/m 2,1 km/h (1 Bft) 95,74 %
31.08.2015 11:26 28,7 C 36,7 C 33,9 C 66 % 0 lf 1009,5 hPa 0,0 l/m 2 min 0 min 650 W/m 8,4 km/h (2 Bft) 97,87 %
31.08.2015 11:28 28,8 C 36,1 C 33,9 C 65 % 0 lf 1009,5 hPa 0,0 l/m 2 min 0 min 632 W/m 10,5 km/h (2 Bft) 95,92 %
31.08.2015 11:30 28,8 C 37,2 C 34,4 C 66 % 0 lf 1009,5 hPa 0,0 l/m 2 min 0 min 648 W/m 8,4 km/h (2 Bft) 97,87 %
31.08.2015 11:32 28,9 C 35,6 C 33,9 C 66 % 0 lf 1009,4 hPa 0,0 l/m 2 min 0 min 657 W/m 10,5 km/h (2 Bft) 91,49 %
31.08.2015 11:34 29,0 C 36,7 C 33,3 C 65 % 0 lf 1009,4 hPa 0,0 l/m 2 min 0 min 657 W/m 14,6 km/h (3 Bft) 97,87 %
31.08.2015 11:36 29,1 C 36,7 C 33,3 C 66 % 0 lf 1009,3 hPa 0,0 l/m 2 min 0 min 657 W/m 14,6 km/h (3 Bft) 100,00 %
31.08.2015 11:38 29,2 C 35,6 C 34,4 C 65 % 0 lf 1009,3 hPa 0,0 l/m 2 min 0 min 657 W/m 10,5 km/h (2 Bft) 97,87 %
31.08.2015 11:40 29,2 C 34,4 C 35,0 C 64 % 0 lf 1009,3 hPa 0,0 l/m 2 min 0 min 664 W/m 14,6 km/h (3 Bft) 95,65 %
31.08.2015 11:42 29,3 C 35,6 C 34,4 C 65 % 0 lf 1009,3 hPa 0,0 l/m 2 min 0 min 634 W/m 12,6 km/h (3 Bft) 95,74 %
31.08.2015 11:44 29,4 C 36,7 C 33,9 C 64 % 0 lf 1009,3 hPa 0,0 l/m 2 min 0 min 523 W/m 10,5 km/h (2 Bft) 93,62 %
31.08.2015 11:46 29,4 C 36,1 C 33,9 C 63 % 0 lf 1009,3 hPa 0,0 l/m 2 min 0 min 611 W/m 16,7 km/h (3 Bft) 93,62 %
31.08.2015 11:48 29,4 C 37,2 C 33,3 C 63 % 0 lf 1009,2 hPa 0,0 l/m 2 min 0 min 672 W/m 14,6 km/h (3 Bft) 89,36 %
31.08.2015 11:50 29,6 C 37,2 C 33,9 C 63 % 0 lf 1009,2 hPa 0,0 l/m 2 min 0 min 680 W/m 14,6 km/h (3 Bft) 95,74 %
31.08.2015 11:52 29,6 C 37,8 C 33,9 C 63 % 0 lf 1009,1 hPa 0,0 l/m 2 min 0 min 686 W/m 14,6 km/h (3 Bft) 97,83 %
31.08.2015 11:54 29,7 C 38,3 C 34,4 C 63 % 0 lf 1009,2 hPa 0,0 l/m 2 min 0 min 653 W/m 12,6 km/h (3 Bft) 97,87 %
31.08.2015 11:56 29,8 C 36,7 C 34,4 C 62 % 0 lf 1009,1 hPa 0,0 l/m 2 min 0 min 643 W/m 14,6 km/h (3 Bft) 95,74 %
31.08.2015 11:58 29,8 C 35,6 C 34,4 C 61 % 0 lf 1009,1 hPa 0,0 l/m 2 min 0 min 697 W/m 16,7 km/h (3 Bft) 97,87 %
31.08.2015 12:00 29,8 C 33,9 C 33,9 C 59 % 0 lf 1009,0 hPa 0,0 l/m 2 min 0 min 697 W/m 18,8 km/h (3 Bft) 95,74 %
31.08.2015 12:02 29,9 C 34,4 C 33,9 C 60 % 0 lf 1009,0 hPa 0,0 l/m 2 min 0 min 701 W/m 12,6 km/h (3 Bft) 97,83 %
31.08.2015 12:05 29,9 C 36,1 C 34,4 C 61 % 0 lf 1008,9 hPa 0,0 l/m 2 min 0 min 669 W/m 10,5 km/h (2 Bft) 94,37 %
31.08.2015 12:06 29,9 C 36,1 C 35,0 C 61 % 0 lf 1008,9 hPa 0,0 l/m 1 min 0 min 389 W/m 12,6 km/h (3 Bft) 91,30 %
31.08.2015 12:08 30,0 C 35,6 C 35,0 C 58 % 0 lf 1008,9 hPa 0,0 l/m 0 min 0 min 146 W/m 12,6 km/h (3 Bft) 97,87 %
31.08.2015 12:10 30,0 C 36,7 C 35,0 C 58 % 0 lf 1008,9 hPa 0,0 l/m 2 min 0 min 666 W/m 18,8 km/h (3 Bft) 97,87 %
31.08.2015 12:12 30,1 C 37,2 C 34,4 C 58 % 0 lf 1008,9 hPa 0,0 l/m 2 min 0 min 701 W/m 14,6 km/h (3 Bft) 97,87 %
31.08.2015 12:14 30,2 C 37,2 C 34,4 C 58 % 0 lf 1008,9 hPa 0,0 l/m 2 min 0 min 703 W/m 20,9 km/h (4 Bft) 97,83 %
31.08.2015 12:16 30,2 C 36,7 C 34,4 C 57 % 0 lf 1008,9 hPa 0,0 l/m 2 min 0 min 706 W/m 16,7 km/h (3 Bft) 97,87 %
31.08.2015 12:18 30,2 C 36,7 C 34,4 C 56 % 0 lf 1008,9 hPa 0,0 l/m 2 min 0 min 707 W/m 14,6 km/h (3 Bft) 97,87 %
31.08.2015 12:20 30,3 C 36,7 C 34,4 C 57 % 0 lf 1008,8 hPa 0,0 l/m 2 min 0 min 712 W/m 18,8 km/h (3 Bft) 97,87 %
31.08.2015 12:22 30,3 C 37,2 C 33,3 C 57 % 0 lf 1008,8 hPa 0,0 l/m 2 min 0 min 717 W/m 16,7 km/h (3 Bft) 97,87 %
31.08.2015 12:24 30,4 C 37,8 C 33,3 C 58 % 0 lf 1008,8 hPa 0,0 l/m 2 min 0 min 719 W/m 12,6 km/h (3 Bft) 97,87 %
31.08.2015 12:26 30,5 C 37,2 C 32,8 C 57 % 0 lf 1008,7 hPa 0,0 l/m 2 min 0 min 719 W/m 10,5 km/h (2 Bft) 97,83 %
31.08.2015 12:28 30,6 C 37,2 C 32,8 C 58 % 0 lf 1008,7 hPa 0,0 l/m 2 min 0 min 719 W/m 14,6 km/h (3 Bft) 95,74 %
31.08.2015 12:30 30,6 C 35,6 C 32,8 C 54 % 0 lf 1008,7 hPa 0,0 l/m 2 min 0 min 720 W/m 16,7 km/h (3 Bft) 100,00 %
31.08.2015 12:32 30,6 C 35,0 C 32,8 C 54 % 0 lf 1008,7 hPa 0,0 l/m 2 min 0 min 721 W/m 20,9 km/h (4 Bft) 100,00 %
31.08.2015 12:34 30,6 C 37,2 C 32,2 C 54 % 0 lf 1008,7 hPa 0,0 l/m 2 min 0 min 722 W/m 12,6 km/h (3 Bft) 95,74 %
31.08.2015 12:36 30,7 C 37,8 C 32,2 C 55 % 0 lf 1008,7 hPa 0,0 l/m 2 min 0 min 723 W/m 12,6 km/h (3 Bft) 100,00 %
31.08.2015 12:38 30,7 C 37,8 C 32,2 C 56 % 0 lf 1008,7 hPa 0,0 l/m 2 min 0 min 724 W/m 18,8 km/h (3 Bft) 100,00 %
31.08.2015 12:40 30,7 C 37,8 C 31,1 C 56 % 0 lf 1008,7 hPa 0,0 l/m 2 min 0 min 726 W/m 16,7 km/h (3 Bft) 93,62 %
31.08.2015 12:42 30,8 C 36,1 C 31,1 C 55 % 0 lf 1008,7 hPa 0,0 l/m 2 min 0 min 726 W/m 18,8 km/h (3 Bft) 97,87 %
31.08.2015 12:44 30,7 C 34,4 C 31,1 C 53 % 0 lf 1008,8 hPa 0,0 l/m 2 min 0 min 728 W/m 20,9 km/h (4 Bft) 95,74 %
31.08.2015 12:46 30,7 C 34,4 C 30,6 C 53 % 0 lf 1008,7 hPa 0,0 l/m 2 min 0 min 729 W/m 20,9 km/h (4 Bft) 100,00 %
31.08.2015 12:48 30,7 C 35,6 C 30,6 C 54 % 0 lf 1008,7 hPa 0,0 l/m 2 min 0 min 731 W/m 16,7 km/h (3 Bft) 97,87 %
31.08.2015 12:50 30,7 C 35,0 C 30,6 C 54 % 0 lf 1008,7 hPa 0,0 l/m 2 min 0 min 731 W/m 14,6 km/h (3 Bft) 95,65 %
31.08.2015 12:52 30,7 C 35,0 C 30,6 C 54 % 0 lf 1008,6 hPa 0,0 l/m 2 min 0 min 731 W/m 16,7 km/h (3 Bft) 95,74 %
31.08.2015 12:54 30,7 C 35,0 C 30,6 C 55 % 0 lf 1008,6 hPa 0,0 l/m 2 min 0 min 734 W/m 18,8 km/h (3 Bft) 95,74 %
31.08.2015 12:56 30,7 C 37,2 C 30,6 C 55 % 0 lf 1008,6 hPa 0,0 l/m 2 min 0 min 735 W/m 14,6 km/h (3 Bft) 97,87 %
31.08.2015 12:58 30,7 C 37,8 C 30,6 C 56 % 0 lf 1008,5 hPa 0,0 l/m 2 min 0 min 735 W/m 23,0 km/h (4 Bft) 95,74 %
31.08.2015 13:00 30,8 C 36,1 C 31,1 C 54 % 0 lf 1008,5 hPa 0,0 l/m 2 min 0 min 737 W/m 12,6 km/h (3 Bft) 93,62 %
31.08.2015 13:02 30,8 C 37,2 C 31,1 C 55 % 0 lf 1008,6 hPa 0,0 l/m 2 min 0 min 733 W/m 12,6 km/h (3 Bft) 97,83 %
31.08.2015 13:04 30,9 C 38,9 C 31,1 C 58 % 0 lf 1008,5 hPa 0,0 l/m 2 min 0 min 735 W/m 14,6 km/h (3 Bft) 95,74 %
31.08.2015 13:06 30,9 C 38,9 C 31,1 C 55 % 0 lf 1008,6 hPa 0,0 l/m 2 min 0 min 736 W/m 14,6 km/h (3 Bft) 95,74 %
31.08.2015 13:08 31,0 C 40,0 C 30,6 C 55 % 0 lf 1008,5 hPa 0,0 l/m 2 min 0 min 737 W/m 14,6 km/h (3 Bft) 93,62 %
31.08.2015 13:10 31,1 C 37,2 C 31,1 C 53 % 0 lf 1008,6 hPa 0,0 l/m 2 min 0 min 738 W/m 14,6 km/h (3 Bft) 95,74 %
31.08.2015 13:12 31,1 C 36,7 C 31,1 C 54 % 0 lf 1008,5 hPa 0,0 l/m 2 min 0 min 739 W/m 14,6 km/h (3 Bft) 91,30 %
31.08.2015 13:14 31,2 C 36,7 C 31,1 C 55 % 0 lf 1008,5 hPa 0,0 l/m 2 min 0 min 741 W/m 12,6 km/h (3 Bft) 91,49 %
31.08.2015 13:16 31,2 C 38,9 C 31,1 C 55 % 0 lf 1008,5 hPa 0,0 l/m 2 min 0 min 739 W/m 12,6 km/h (3 Bft) 91,49 %
31.08.2015 13:18 31,3 C 40,0 C 31,1 C 55 % 0 lf 1008,4 hPa 0,0 l/m 2 min 0 min 738 W/m 10,5 km/h (2 Bft) 91,49 %
31.08.2015 13:20 31,4 C 37,8 C 31,1 C 53 % 0 lf 1008,4 hPa 0,0 l/m 2 min 0 min 736 W/m 14,6 km/h (3 Bft) 95,74 %
31.08.2015 13:22 31,5 C 37,8 C 31,1 C 53 % 0 lf 1008,3 hPa 0,0 l/m 2 min 0 min 734 W/m 14,6 km/h (3 Bft) 93,62 %
31.08.2015 13:24 31,6 C 40,0 C 30,6 C 55 % 0 lf 1008,4 hPa 0,0 l/m 2 min 0 min 737 W/m 10,5 km/h (2 Bft) 93,48 %
31.08.2015 13:26 31,7 C 39,4 C 30,6 C 54 % 0 lf 1008,4 hPa 0,0 l/m 2 min 0 min 736 W/m 16,7 km/h (3 Bft) 95,74 %
31.08.2015 13:28 31,8 C 40,0 C 30,6 C 54 % 0 lf 1008,3 hPa 0,0 l/m 2 min 0 min 736 W/m 12,6 km/h (3 Bft) 93,62 %
31.08.2015 13:30 31,8 C 40,0 C 30,6 C 52 % 0 lf 1008,4 hPa 0,0 l/m 2 min 0 min 738 W/m 12,6 km/h (3 Bft) 95,74 %
31.08.2015 13:32 31,9 C 41,1 C 30,6 C 54 % 0 lf 1008,4 hPa 0,0 l/m 2 min 0 min 738 W/m 10,5 km/h (2 Bft) 93,62 %
31.08.2015 13:34 32,1 C 40,6 C 30,6 C 54 % 0 lf 1008,3 hPa 0,0 l/m 2 min 0 min 737 W/m 10,5 km/h (2 Bft) 95,74 %
31.08.2015 13:36 32,2 C 40,6 C 30,0 C 53 % 0 lf 1008,3 hPa 0,0 l/m 2 min 0 min 738 W/m 16,7 km/h (3 Bft) 95,65 %
31.08.2015 13:38 32,2 C 39,4 C 30,0 C 52 % 0 lf 1008,2 hPa 0,0 l/m 2 min 0 min 734 W/m 16,7 km/h (3 Bft) 93,62 %
31.08.2015 13:40 32,3 C 39,4 C 30,0 C 53 % 0 lf 1008,2 hPa 0,0 l/m 2 min 0 min 729 W/m 14,6 km/h (3 Bft) 95,74 %
31.08.2015 13:42 32,3 C 39,4 C 30,0 C 52 % 0 lf 1008,2 hPa 0,0 l/m 2 min 0 min 732 W/m 18,8 km/h (3 Bft) 95,74 %
31.08.2015 13:44 32,4 C 38,9 C 30,0 C 51 % 0 lf 1008,1 hPa 0,0 l/m 2 min 0 min 728 W/m 14,6 km/h (3 Bft) 95,74 %
31.08.2015 13:46 32,4 C 38,9 C 30,0 C 53 % 0 lf 1008,1 hPa 0,0 l/m 2 min 0 min 726 W/m 10,5 km/h (2 Bft) 95,74 %
31.08.2015 13:48 32,4 C 39,4 C 30,0 C 53 % 0 lf 1008,1 hPa 0,0 l/m 2 min 0 min 728 W/m 18,8 km/h (3 Bft) 97,83 %
31.08.2015 13:50 32,5 C 40,6 C 30,0 C 54 % 0 lf 1008,1 hPa 0,0 l/m 2 min 0 min 727 W/m 14,6 km/h (3 Bft) 95,74 %
31.08.2015 13:52 32,6 C 41,1 C 30,0 C 53 % 0 lf 1008,1 hPa 0,0 l/m 2 min 0 min 737 W/m 12,6 km/h (3 Bft) 97,87 %
31.08.2015 13:54 32,7 C 40,6 C 30,0 C 52 % 0 lf 1008,1 hPa 0,0 l/m 2 min 0 min 740 W/m 18,8 km/h (3 Bft) 95,74 %
31.08.2015 13:56 32,7 C 40,0 C 30,0 C 52 % 0 lf 1008,0 hPa 0,0 l/m 2 min 0 min 741 W/m 16,7 km/h (3 Bft) 97,87 %
31.08.2015 13:58 32,7 C 40,0 C 30,0 C 50 % 0 lf 1008,0 hPa 0,0 l/m 2 min 0 min 740 W/m 16,7 km/h (3 Bft) 97,87 %
31.08.2015 14:00 32,7 C 40,6 C 30,0 C 50 % 0 lf 1008,1 hPa 0,0 l/m 2 min 0 min 739 W/m 16,7 km/h (3 Bft) 97,83 %
31.08.2015 14:02 32,8 C 41,7 C 30,0 C 50 % 0 lf 1008,0 hPa 0,0 l/m 2 min 0 min 740 W/m 14,6 km/h (3 Bft) 97,87 %
31.08.2015 14:04 32,9 C 40,6 C 30,0 C 49 % 0 lf 1008,0 hPa 0,0 l/m 2 min 0 min 736 W/m 25,1 km/h (4 Bft) 100,00 %
31.08.2015 14:06 32,8 C 38,9 C 30,0 C 47 % 0 lf 1007,9 hPa 0,0 l/m 2 min 0 min 729 W/m 33,5 km/h (5 Bft) 100,00 %
31.08.2015 14:08 32,9 C 39,4 C 30,0 C 48 % 0 lf 1008,0 hPa 0,0 l/m 2 min 0 min 731 W/m 14,6 km/h (3 Bft) 100,00 %
31.08.2015 14:10 32,9 C 40,6 C 30,0 C 48 % 0 lf 1007,9 hPa 0,0 l/m 2 min 0 min 736 W/m 16,7 km/h (3 Bft) 97,87 %
31.08.2015 14:12 32,9 C 40,6 C 30,0 C 48 % 0 lf 1007,9 hPa 0,0 l/m 2 min 0 min 738 W/m 14,6 km/h (3 Bft) 100,00 %
31.08.2015 14:14 32,9 C 40,6 C 30,6 C 49 % 0 lf 1007,9 hPa 0,0 l/m 2 min 0 min 735 W/m 14,6 km/h (3 Bft) 97,87 %
31.08.2015 14:16 33,0 C 40,6 C 30,6 C 49 % 0 lf 1007,8 hPa 0,0 l/m 2 min 0 min 734 W/m 14,6 km/h (3 Bft) 100,00 %
31.08.2015 14:18 33,0 C 40,0 C 30,6 C 49 % 0 lf 1007,8 hPa 0,0 l/m 2 min 0 min 727 W/m 18,8 km/h (3 Bft) 100,00 %
31.08.2015 14:20 33,0 C 38,9 C 30,6 C 47 % 0 lf 1007,9 hPa 0,0 l/m 2 min 0 min 720 W/m 23,0 km/h (4 Bft) 98,31 %
31.08.2015 14:22 33,0 C 37,8 C 30,6 C 47 % 0 lf 1007,9 hPa 0,0 l/m 2 min 0 min 721 W/m 25,1 km/h (4 Bft) 94,29 %
31.08.2015 14:24 32,9 C 37,2 C 30,6 C 47 % 0 lf 1007,8 hPa 0,0 l/m 2 min 0 min 726 W/m 23,0 km/h (4 Bft) 97,87 %
31.08.2015 14:26 32,9 C 37,2 C 30,6 C 47 % 0 lf 1007,8 hPa 0,0 l/m 2 min 0 min 724 W/m 18,8 km/h (3 Bft) 100,00 %
31.08.2015 14:28 32,9 C 37,8 C 30,6 C 47 % 0 lf 1007,8 hPa 0,0 l/m 2 min 0 min 719 W/m 27,2 km/h (4 Bft) 95,74 %
31.08.2015 14:30 32,9 C 38,9 C 30,6 C 48 % 0 lf 1007,8 hPa 0,0 l/m 2 min 0 min 711 W/m 18,8 km/h (3 Bft) 97,87 %
31.08.2015 14:32 32,9 C 39,4 C 30,0 C 48 % 0 lf 1007,7 hPa 0,0 l/m 2 min 0 min 705 W/m 14,6 km/h (3 Bft) 97,87 %
31.08.2015 14:34 33,0 C 39,4 C 30,6 C 49 % 0 lf 1007,7 hPa 0,0 l/m 2 min 0 min 712 W/m 12,6 km/h (3 Bft) 97,87 %
31.08.2015 14:36 33,1 C 40,6 C 30,6 C 48 % 0 lf 1007,6 hPa 0,0 l/m 2 min 0 min 710 W/m 16,7 km/h (3 Bft) 97,87 %
31.08.2015 14:38 33,1 C 41,1 C 30,6 C 48 % 0 lf 1007,6 hPa 0,0 l/m 2 min 0 min 711 W/m 14,6 km/h (3 Bft) 97,83 %
31.08.2015 14:40 33,2 C 41,1 C 30,6 C 49 % 0 lf 1007,7 hPa 0,0 l/m 2 min 0 min 706 W/m 14,6 km/h (3 Bft) 95,74 %
31.08.2015 14:42 33,2 C 41,1 C 30,6 C 49 % 0 lf 1007,6 hPa 0,0 l/m 2 min 0 min 699 W/m 14,6 km/h (3 Bft) 97,87 %
31.08.2015 14:44 33,3 C 40,6 C 30,6 C 49 % 0 lf 1007,6 hPa 0,0 l/m 2 min 0 min 698 W/m 14,6 km/h (3 Bft) 95,74 %
31.08.2015 14:46 33,4 C 40,0 C 31,1 C 49 % 0 lf 1007,6 hPa 0,0 l/m 2 min 0 min 699 W/m 25,1 km/h (4 Bft) 97,87 %
31.08.2015 14:48 33,4 C 38,9 C 30,6 C 48 % 0 lf 1007,6 hPa 0,0 l/m 2 min 0 min 699 W/m 18,8 km/h (3 Bft) 97,87 %
31.08.2015 14:50 33,5 C 39,4 C 30,6 C 49 % 0 lf 1007,5 hPa 0,0 l/m 2 min 0 min 697 W/m 16,7 km/h (3 Bft) 100,00 %
31.08.2015 14:52 33,5 C 40,0 C 30,6 C 49 % 0 lf 1007,6 hPa 0,0 l/m 2 min 0 min 695 W/m 14,6 km/h (3 Bft) 97,87 %
31.08.2015 14:54 33,6 C 40,0 C 30,6 C 50 % 0 lf 1007,5 hPa 0,0 l/m 2 min 0 min 692 W/m 16,7 km/h (3 Bft) 97,87 %
31.08.2015 14:56 33,7 C 40,0 C 30,6 C 48 % 0 lf 1007,5 hPa 0,0 l/m 2 min 0 min 690 W/m 20,9 km/h (4 Bft) 97,87 %
31.08.2015 14:58 33,7 C 39,4 C 30,6 C 48 % 0 lf 1007,5 hPa 0,0 l/m 2 min 0 min 685 W/m 14,6 km/h (3 Bft) 97,87 %
31.08.2015 15:00 33,7 C 41,1 C 30,6 C 49 % 0 lf 1007,5 hPa 0,0 l/m 2 min 0 min 681 W/m 18,8 km/h (3 Bft) 100,00 %
31.08.2015 15:02 33,7 C 40,6 C 30,6 C 48 % 0 lf 1007,4 hPa 0,0 l/m 2 min 0 min 676 W/m 20,9 km/h (4 Bft) 97,83 %
31.08.2015 15:04 33,8 C 40,0 C 30,6 C 48 % 0 lf 1007,3 hPa 0,0 l/m 2 min 0 min 677 W/m 20,9 km/h (4 Bft) 100,00 %
31.08.2015 15:06 33,8 C 40,0 C 30,6 C 47 % 0 lf 1007,3 hPa 0,0 l/m 2 min 0 min 678 W/m 18,8 km/h (3 Bft) 100,00 %
31.08.2015 15:08 33,8 C 38,9 C 30,6 C 46 % 0 lf 1007,3 hPa 0,0 l/m 2 min 0 min 676 W/m 23,0 km/h (4 Bft) 100,00 %
31.08.2015 15:10 33,8 C 39,4 C 30,6 C 48 % 0 lf 1007,2 hPa 0,0 l/m 2 min 0 min 678 W/m 23,0 km/h (4 Bft) 97,87 %
31.08.2015 15:12 33,7 C 38,3 C 30,6 C 47 % 0 lf 1007,2 hPa 0,0 l/m 2 min 0 min 644 W/m 33,5 km/h (5 Bft) 100,00 %
31.08.2015 15:14 33,7 C 37,8 C 30,0 C 46 % 0 lf 1007,1 hPa 0,0 l/m 2 min 0 min 607 W/m 23,0 km/h (4 Bft) 97,83 %
31.08.2015 15:16 33,6 C 37,8 C 30,0 C 48 % 0 lf 1007,1 hPa 0,0 l/m 2 min 0 min 618 W/m 16,7 km/h (3 Bft) 100,00 %
31.08.2015 15:18 33,6 C 38,9 C 30,6 C 47 % 0 lf 1007,1 hPa 0,0 l/m 2 min 0 min 653 W/m 18,8 km/h (3 Bft) 97,87 %
31.08.2015 15:20 33,6 C 38,9 C 30,6 C 49 % 0 lf 1007,0 hPa 0,0 l/m 2 min 0 min 655 W/m 16,7 km/h (3 Bft) 100,00 %
31.08.2015 15:22 33,6 C 37,8 C 30,6 C 47 % 0 lf 1007,0 hPa 0,0 l/m 2 min 0 min 652 W/m 23,0 km/h (4 Bft) 100,00 %
31.08.2015 15:24 33,6 C 38,3 C 30,6 C 47 % 0 lf 1007,0 hPa 0,0 l/m 2 min 0 min 649 W/m 23,0 km/h (4 Bft) 97,87 %
31.08.2015 15:26 33,6 C 38,3 C 30,6 C 47 % 0 lf 1007,0 hPa 0,0 l/m 2 min 0 min 645 W/m 18,8 km/h (3 Bft) 100,00 %
31.08.2015 15:28 33,6 C 39,4 C 30,6 C 47 % 0 lf 1007,0 hPa 0,0 l/m 2 min 0 min 641 W/m 23,0 km/h (4 Bft) 100,00 %
31.08.2015 15:30 33,6 C 39,4 C 30,6 C 47 % 0 lf 1007,0 hPa 0,0 l/m 2 min 0 min 637 W/m 31,4 km/h (5 Bft) 100,00 %
31.08.2015 15:32 33,6 C 38,9 C 30,6 C 46 % 0 lf 1007,0 hPa 0,0 l/m 2 min 0 min 635 W/m 29,3 km/h (5 Bft) 100,00 %
31.08.2015 15:34 33,6 C 38,3 C 30,6 C 46 % 0 lf 1007,0 hPa 0,0 l/m 2 min 0 min 631 W/m 31,4 km/h (5 Bft) 97,87 %
31.08.2015 15:36 33,5 C 37,2 C 30,6 C 46 % 0 lf 1007,1 hPa 0,0 l/m 2 min 0 min 628 W/m 29,3 km/h (5 Bft) 97,87 %
31.08.2015 15:38 33,4 C 37,8 C 30,6 C 46 % 0 lf 1006,9 hPa 0,0 l/m 2 min 0 min 625 W/m 27,2 km/h (4 Bft) 95,65 %
31.08.2015 15:40 33,4 C 37,8 C 30,6 C 47 % 0 lf 1007,0 hPa 0,0 l/m 2 min 0 min 621 W/m 20,9 km/h (4 Bft) 95,74 %
31.08.2015 15:42 33,4 C 37,8 C 30,6 C 47 % 0 lf 1007,1 hPa 0,0 l/m 2 min 0 min 619 W/m 20,9 km/h (4 Bft) 97,87 %
31.08.2015 15:44 33,4 C 39,4 C 30,6 C 49 % 0 lf 1007,1 hPa 0,0 l/m 2 min 0 min 615 W/m 18,8 km/h (3 Bft) 97,87 %
31.08.2015 15:46 33,4 C 38,9 C 30,6 C 48 % 0 lf 1007,1 hPa 0,0 l/m 2 min 0 min 611 W/m 18,8 km/h (3 Bft) 95,74 %
31.08.2015 15:48 33,4 C 38,3 C 30,6 C 46 % 0 lf 1007,1 hPa 0,0 l/m 2 min 0 min 611 W/m 35,6 km/h (5 Bft) 93,62 %
31.08.2015 15:50 33,4 C 38,3 C 30,6 C 45 % 0 lf 1007,1 hPa 0,0 l/m 2 min 0 min 610 W/m 20,9 km/h (4 Bft) 97,83 %
31.08.2015 15:52 33,4 C 37,8 C 30,6 C 45 % 0 lf 1007,0 hPa 0,0 l/m 2 min 0 min 603 W/m 27,2 km/h (4 Bft) 95,74 %
31.08.2015 15:54 33,3 C 36,7 C 30,6 C 46 % 0 lf 1007,0 hPa 0,0 l/m 2 min 0 min 600 W/m 27,2 km/h (4 Bft) 95,74 %
31.08.2015 15:56 33,3 C 37,2 C 30,6 C 46 % 0 lf 1007,1 hPa 0,0 l/m 2 min 0 min 599 W/m 29,3 km/h (5 Bft) 93,62 %
31.08.2015 15:58 33,3 C 37,2 C 30,6 C 45 % 0 lf 1007,0 hPa 0,0 l/m 2 min 0 min 598 W/m 25,1 km/h (4 Bft) 95,74 %
31.08.2015 16:00 33,3 C 37,8 C 30,6 C 46 % 0 lf 1007,0 hPa 0,0 l/m 2 min 0 min 596 W/m 16,7 km/h (3 Bft) 95,24 %
31.08.2015 16:02 33,3 C 37,8 C 30,6 C 45 % 0 lf 1006,9 hPa 0,0 l/m 2 min 0 min 594 W/m 35,6 km/h (5 Bft) 96,08 %
31.08.2015 16:04 33,3 C 37,2 C 30,6 C 45 % 0 lf 1006,9 hPa 0,0 l/m 2 min 0 min 594 W/m 27,2 km/h (4 Bft) 91,49 %
31.08.2015 16:06 33,2 C 37,2 C 30,6 C 45 % 0 lf 1006,9 hPa 0,0 l/m 2 min 0 min 595 W/m 25,1 km/h (4 Bft) 93,62 %
31.08.2015 16:08 33,2 C 37,2 C 30,6 C 45 % 0 lf 1007,0 hPa 0,0 l/m 2 min 0 min 599 W/m 18,8 km/h (3 Bft) 93,62 %
31.08.2015 16:10 33,2 C 37,2 C 30,6 C 45 % 0 lf 1007,0 hPa 0,0 l/m 2 min 0 min 606 W/m 23,0 km/h (4 Bft) 91,49 %
31.08.2015 16:12 33,2 C 37,8 C 30,6 C 45 % 0 lf 1007,0 hPa 0,0 l/m 2 min 0 min 570 W/m 18,8 km/h (3 Bft) 95,74 %
31.08.2015 16:14 33,2 C 36,1 C 30,0 C 44 % 0 lf 1007,0 hPa 0,0 l/m 2 min 0 min 345 W/m 29,3 km/h (5 Bft) 91,30 %
31.08.2015 16:16 33,1 C 35,0 C 30,0 C 44 % 0 lf 1007,0 hPa 0,0 l/m 0 min 0 min 276 W/m 27,2 km/h (4 Bft) 89,36 %
31.08.2015 16:18 33,1 C 34,4 C 29,4 C 44 % 0 lf 1007,0 hPa 0,0 l/m 0 min 0 min 253 W/m 29,3 km/h (5 Bft) 91,49 %
31.08.2015 16:20 32,9 C 33,3 C 29,4 C 45 % 0 lf 1007,0 hPa 0,0 l/m 0 min 0 min 232 W/m 25,1 km/h (4 Bft) 91,49 %
31.08.2015 16:22 32,8 C 33,3 C 29,4 C 44 % 0 lf 1006,9 hPa 0,0 l/m 0 min 0 min 249 W/m 18,8 km/h (3 Bft) 93,62 %
31.08.2015 16:24 32,7 C 33,3 C 29,4 C 45 % 0 lf 1006,9 hPa 0,0 l/m 2 min 0 min 281 W/m 29,3 km/h (5 Bft) 93,62 %
31.08.2015 16:26 32,6 C 33,9 C 29,4 C 45 % 0 lf 1006,9 hPa 0,0 l/m 0 min 0 min 272 W/m 23,0 km/h (4 Bft) 93,48 %
31.08.2015 16:28 32,5 C 35,0 C 29,4 C 45 % 0 lf 1007,0 hPa 0,0 l/m 2 min 0 min 454 W/m 25,1 km/h (4 Bft) 89,36 %
31.08.2015 16:30 32,4 C 35,0 C 29,4 C 45 % 0 lf 1007,0 hPa 0,0 l/m 2 min 0 min 455 W/m 27,2 km/h (4 Bft) 93,62 %
31.08.2015 16:32 32,4 C 35,0 C 29,4 C 45 % 0 lf 1007,0 hPa 0,0 l/m 2 min 0 min 482 W/m 23,0 km/h (4 Bft) 93,62 %
31.08.2015 16:34 32,4 C 35,0 C 29,4 C 45 % 0 lf 1006,9 hPa 0,0 l/m 0 min 0 min 244 W/m 23,0 km/h (4 Bft) 93,62 %
31.08.2015 16:36 32,4 C 35,0 C 29,4 C 45 % 0 lf 1007,0 hPa 0,0 l/m 2 min 0 min 302 W/m 18,8 km/h (3 Bft) 93,62 %
31.08.2015 16:38 32,3 C 34,4 C 29,4 C 44 % 0 lf 1006,9 hPa 0,0 l/m 2 min 0 min 362 W/m 27,2 km/h (4 Bft) 91,30 %
31.08.2015 16:40 32,3 C 33,9 C 29,4 C 44 % 0 lf 1006,8 hPa 0,0 l/m 0 min 0 min 206 W/m 31,4 km/h (5 Bft) 95,74 %
31.08.2015 16:42 32,2 C 33,9 C 28,9 C 45 % 0 lf 1006,9 hPa 0,0 l/m 0 min 0 min 159 W/m 27,2 km/h (4 Bft) 95,74 %
31.08.2015 16:44 32,2 C 35,0 C 28,9 C 45 % 0 lf 1006,8 hPa 0,0 l/m 2 min 0 min 351 W/m 20,9 km/h (4 Bft) 95,74 %
31.08.2015 16:46 32,2 C 35,0 C 29,4 C 45 % 0 lf 1006,9 hPa 0,0 l/m 2 min 0 min 393 W/m 27,2 km/h (4 Bft) 93,62 %
31.08.2015 16:48 32,1 C 34,4 C 28,9 C 45 % 0 lf 1006,9 hPa 0,0 l/m 2 min 0 min 279 W/m 31,4 km/h (5 Bft) 93,48 %
31.08.2015 16:50 32,1 C 33,9 C 28,9 C 44 % 0 lf 1006,9 hPa 0,0 l/m 2 min 0 min 258 W/m 27,2 km/h (4 Bft) 95,83 %
31.08.2015 16:52 32,1 C 33,9 C 28,9 C 45 % 0 lf 1006,9 hPa 0,0 l/m 2 min 0 min 283 W/m 25,1 km/h (4 Bft) 95,74 %
31.08.2015 16:54 32,0 C 33,3 C 28,9 C 45 % 0 lf 1007,0 hPa 0,0 l/m 2 min 0 min 267 W/m 25,1 km/h (4 Bft) 95,74 %
31.08.2015 16:56 31,9 C 33,3 C 28,9 C 45 % 0 lf 1007,0 hPa 0,0 l/m 2 min 0 min 296 W/m 20,9 km/h (4 Bft) 91,84 %
31.08.2015 16:58 31,9 C 33,3 C 28,9 C 44 % 0 lf 1007,0 hPa 0,0 l/m 2 min 0 min 333 W/m 29,3 km/h (5 Bft) 95,74 %
31.08.2015 17:00 31,8 C 33,3 C 28,9 C 44 % 0 lf 1007,0 hPa 0,0 l/m 2 min 0 min 260 W/m 23,0 km/h (4 Bft) 93,62 %
31.08.2015 17:02 31,8 C 32,8 C 28,9 C 45 % 0 lf 1007,0 hPa 0,0 l/m 0 min 0 min 215 W/m 16,7 km/h (3 Bft) 93,62 %
31.08.2015 17:04 31,7 C 32,8 C 28,9 C 44 % 0 lf 1006,9 hPa 0,0 l/m 0 min 0 min 224 W/m 23,0 km/h (4 Bft) 95,74 %
31.08.2015 17:06 31,7 C 32,8 C 28,9 C 44 % 0 lf 1006,9 hPa 0,0 l/m 2 min 0 min 267 W/m 29,3 km/h (5 Bft) 93,62 %
31.08.2015 17:08 31,7 C 32,8 C 28,9 C 44 % 0 lf 1006,9 hPa 0,0 l/m 2 min 0 min 299 W/m 18,8 km/h (3 Bft) 97,83 %
31.08.2015 17:10 31,6 C 33,9 C 28,9 C 45 % 0 lf 1006,9 hPa 0,0 l/m 2 min 0 min 370 W/m 20,9 km/h (4 Bft) 97,87 %
31.08.2015 17:12 31,6 C 33,9 C 28,9 C 46 % 0 lf 1007,0 hPa 0,0 l/m 2 min 0 min 375 W/m 23,0 km/h (4 Bft) 100,00 %
31.08.2015 17:14 31,6 C 35,0 C 28,9 C 46 % 0 lf 1007,0 hPa 0,0 l/m 2 min 0 min 416 W/m 27,2 km/h (4 Bft) 97,87 %
31.08.2015 17:16 31,6 C 35,6 C 29,4 C 45 % 0 lf 1007,0 hPa 0,0 l/m 2 min 0 min 424 W/m 25,1 km/h (4 Bft) 100,00 %
31.08.2015 17:18 31,7 C 36,1 C 29,4 C 46 % 0 lf 1007,0 hPa 0,0 l/m 2 min 0 min 498 W/m 14,6 km/h (3 Bft) 100,00 %
31.08.2015 17:20 31,7 C 36,7 C 29,4 C 46 % 0 lf 1007,0 hPa 0,0 l/m 2 min 0 min 475 W/m 18,8 km/h (3 Bft) 100,00 %
31.08.2015 17:22 31,8 C 36,1 C 29,4 C 47 % 0 lf 1007,0 hPa 0,0 l/m 2 min 0 min 469 W/m 16,7 km/h (3 Bft) 100,00 %
31.08.2015 17:24 31,8 C 35,0 C 29,4 C 47 % 0 lf 1007,0 hPa 0,0 l/m 2 min 0 min 342 W/m 25,1 km/h (4 Bft) 100,00 %
31.08.2015 17:26 31,8 C 35,0 C 29,4 C 48 % 0 lf 1006,9 hPa 0,0 l/m 2 min 0 min 433 W/m 25,1 km/h (4 Bft) 97,87 %
31.08.2015 17:28 31,9 C 35,6 C 29,4 C 48 % 0 lf 1006,9 hPa 0,0 l/m 2 min 0 min 431 W/m 16,7 km/h (3 Bft) 97,87 %
31.08.2015 17:30 31,9 C 35,6 C 29,4 C 48 % 0 lf 1006,8 hPa 0,0 l/m 2 min 0 min 424 W/m 20,9 km/h (4 Bft) 100,00 %
31.08.2015 17:32 31,9 C 35,6 C 29,4 C 48 % 0 lf 1006,8 hPa 0,0 l/m 2 min 0 min 413 W/m 23,0 km/h (4 Bft) 100,00 %
31.08.2015 17:34 31,9 C 35,0 C 28,9 C 48 % 0 lf 1006,8 hPa 0,0 l/m 2 min 0 min 406 W/m 14,6 km/h (3 Bft) 95,74 %
31.08.2015 17:36 31,9 C 34,4 C 28,9 C 47 % 0 lf 1006,8 hPa 0,0 l/m 2 min 0 min 394 W/m 25,1 km/h (4 Bft) 100,00 %
31.08.2015 17:38 31,9 C 33,9 C 28,9 C 48 % 0 lf 1006,8 hPa 0,0 l/m 2 min 0 min 387 W/m 16,7 km/h (3 Bft) 100,00 %
31.08.2015 17:40 31,9 C 34,4 C 28,9 C 47 % 0 lf 1006,8 hPa 0,0 l/m 2 min 0 min 387 W/m 33,5 km/h (5 Bft) 97,87 %
31.08.2015 17:42 31,9 C 35,0 C 28,9 C 48 % 0 lf 1006,9 hPa 0,0 l/m 2 min 0 min 384 W/m 16,7 km/h (3 Bft) 97,83 %
31.08.2015 17:44 31,9 C 33,9 C 28,9 C 48 % 0 lf 1006,8 hPa 0,0 l/m 2 min 0 min 333 W/m 20,9 km/h (4 Bft) 97,87 %
31.08.2015 17:46 31,9 C 32,8 C 28,9 C 48 % 0 lf 1006,8 hPa 0,0 l/m 2 min 0 min 320 W/m 29,3 km/h (5 Bft) 97,87 %
31.08.2015 17:48 31,8 C 32,2 C 28,3 C 49 % 0 lf 1006,8 hPa 0,0 l/m 0 min 0 min 149 W/m 20,9 km/h (4 Bft) 100,00 %
31.08.2015 17:50 31,7 C 31,7 C 28,3 C 50 % 0 lf 1006,8 hPa 0,0 l/m 0 min 0 min 131 W/m 27,2 km/h (4 Bft) 97,87 %
31.08.2015 17:52 31,7 C 31,7 C 27,8 C 50 % 0 lf 1006,8 hPa 0,0 l/m 0 min 0 min 185 W/m 20,9 km/h (4 Bft) 100,00 %
31.08.2015 17:54 31,6 C 31,7 C 27,8 C 51 % 0 lf 1006,9 hPa 0,0 l/m 0 min 0 min 161 W/m 25,1 km/h (4 Bft) 97,83 %
31.08.2015 17:56 31,4 C 31,1 C 27,8 C 51 % 0 lf 1006,9 hPa 0,0 l/m 0 min 0 min 176 W/m 20,9 km/h (4 Bft) 95,74 %
31.08.2015 17:58 31,3 C 30,6 C 27,8 C 52 % 0 lf 1006,9 hPa 0,0 l/m 2 min 0 min 209 W/m 18,8 km/h (3 Bft) 100,00 %
31.08.2015 18:00 31,2 C 30,0 C 27,8 C 52 % 0 lf 1006,9 hPa 0,0 l/m 0 min 0 min 172 W/m 33,5 km/h (5 Bft) 100,00 %
31.08.2015 18:02 31,0 C 30,0 C 27,8 C 52 % 0 lf 1007,0 hPa 0,0 l/m 0 min 0 min 98 W/m 20,9 km/h (4 Bft) 97,87 %
31.08.2015 18:05 30,8 C 30,0 C 27,2 C 53 % 0 lf 1006,9 hPa 0,0 l/m 0 min 0 min 113 W/m 20,9 km/h (4 Bft) 97,87 %
31.08.2015 18:06 30,7 C 30,0 C 27,2 C 54 % 0 lf 1006,9 hPa 0,0 l/m 0 min 0 min 135 W/m 20,9 km/h (4 Bft) 96,67 %
31.08.2015 18:08 30,6 C 30,0 C 27,2 C 54 % 0 lf 1007,1 hPa 0,0 l/m 0 min 0 min 114 W/m 20,9 km/h (4 Bft) 95,74 %
31.08.2015 18:10 30,4 C 30,0 C 27,2 C 54 % 0 lf 1007,1 hPa 0,0 l/m 0 min 0 min 151 W/m 29,3 km/h (5 Bft) 95,65 %
31.08.2015 18:12 30,3 C 30,0 C 27,2 C 54 % 0 lf 1007,1 hPa 0,0 l/m 0 min 0 min 124 W/m 27,2 km/h (4 Bft) 95,74 %
31.08.2015 18:14 30,2 C 30,0 C 27,2 C 54 % 0 lf 1007,1 hPa 0,0 l/m 0 min 0 min 150 W/m 18,8 km/h (3 Bft) 93,62 %
31.08.2015 18:16 30,1 C 30,0 C 27,2 C 56 % 0 lf 1007,0 hPa 0,0 l/m 0 min 0 min 138 W/m 20,9 km/h (4 Bft) 97,87 %
31.08.2015 18:18 30,1 C 30,0 C 27,2 C 55 % 0 lf 1007,0 hPa 0,0 l/m 2 min 0 min 171 W/m 18,8 km/h (3 Bft) 93,62 %
31.08.2015 18:20 30,0 C 30,0 C 27,2 C 56 % 0 lf 1006,9 hPa 0,0 l/m 0 min 0 min 151 W/m 14,6 km/h (3 Bft) 95,74 %
31.08.2015 18:22 29,9 C 30,0 C 27,2 C 56 % 0 lf 1006,7 hPa 0,0 l/m 2 min 0 min 158 W/m 14,6 km/h (3 Bft) 95,65 %
31.08.2015 18:24 29,9 C 30,0 C 27,2 C 57 % 0 lf 1006,8 hPa 0,0 l/m 2 min 0 min 234 W/m 14,6 km/h (3 Bft) 95,74 %
31.08.2015 18:26 29,8 C 29,4 C 26,7 C 57 % 0 lf 1006,9 hPa 0,0 l/m 0 min 0 min 76 W/m 12,6 km/h (3 Bft) 93,62 %
31.08.2015 18:28 29,8 C 29,4 C 26,7 C 57 % 0 lf 1007,0 hPa 0,0 l/m 0 min 0 min 64 W/m 12,6 km/h (3 Bft) 91,49 %
31.08.2015 18:30 29,8 C 29,4 C 26,7 C 57 % 0 lf 1007,0 hPa 0,0 l/m 0 min 0 min 60 W/m 14,6 km/h (3 Bft) 97,87 %
31.08.2015 18:32 29,7 C 28,9 C 26,7 C 57 % 0 lf 1007,1 hPa 0,0 l/m 0 min 0 min 58 W/m 10,5 km/h (2 Bft) 93,62 %
31.08.2015 18:34 29,7 C 28,9 C 26,1 C 57 % 0 lf 1007,1 hPa 0,0 l/m 0 min 0 min 95 W/m 16,7 km/h (3 Bft) 95,65 %
31.08.2015 18:36 29,6 C 28,9 C 26,7 C 58 % 0 lf 1007,2 hPa 0,0 l/m 0 min 0 min 126 W/m 16,7 km/h (3 Bft) 97,87 %
31.08.2015 18:38 29,5 C 28,9 C 26,7 C 58 % 0 lf 1007,2 hPa 0,0 l/m 2 min 0 min 138 W/m 10,5 km/h (2 Bft) 93,62 %
31.08.2015 18:40 29,4 C 29,4 C 26,7 C 59 % 0 lf 1007,3 hPa 0,0 l/m 2 min 0 min 149 W/m 8,4 km/h (2 Bft) 97,87 %
31.08.2015 18:42 29,4 C 29,4 C 26,7 C 60 % 0 lf 1007,5 hPa 0,0 l/m 0 min 0 min 125 W/m 29,3 km/h (5 Bft) 91,49 %
31.08.2015 18:44 29,4 C 29,4 C 26,7 C 60 % 0 lf 1007,6 hPa 0,0 l/m 0 min 0 min 120 W/m 27,2 km/h (4 Bft) 95,74 %
31.08.2015 18:46 29,3 C 28,9 C 26,1 C 62 % 0 lf 1007,6 hPa 0,0 l/m 0 min 0 min 117 W/m 43,9 km/h (6 Bft) 93,48 %
31.08.2015 18:48 29,1 C 28,3 C 25,6 C 64 % 0 lf 1007,7 hPa 0,0 l/m 2 min 0 min 124 W/m 35,6 km/h (5 Bft) 97,87 %
31.08.2015 18:50 28,9 C 27,8 C 25,6 C 64 % 0 lf 1007,6 hPa 0,0 l/m 0 min 0 min 107 W/m 33,5 km/h (5 Bft) 97,87 %
31.08.2015 18:52 28,7 C 27,2 C 25,0 C 64 % 0 lf 1007,5 hPa 0,0 l/m 0 min 0 min 107 W/m 41,8 km/h (6 Bft) 98,00 %
31.08.2015 18:54 28,5 C 26,7 C 25,0 C 64 % 0 lf 1007,5 hPa 0,0 l/m 0 min 0 min 76 W/m 33,5 km/h (5 Bft) 100,00 %
31.08.2015 18:56 28,2 C 26,7 C 24,4 C 64 % 0 lf 1007,6 hPa 0,0 l/m 0 min 0 min 62 W/m 33,5 km/h (5 Bft) 100,00 %
31.08.2015 18:58 28,0 C 26,7 C 24,4 C 65 % 0 lf 1007,7 hPa 0,0 l/m 0 min 0 min 60 W/m 25,1 km/h (4 Bft) 100,00 %
31.08.2015 19:00 27,8 C 26,1 C 24,4 C 65 % 0 lf 1007,7 hPa 0,0 l/m 0 min 0 min 53 W/m 16,7 km/h (3 Bft) 95,83 %
31.08.2015 19:02 27,7 C 26,1 C 24,4 C 65 % 0 lf 1007,8 hPa 0,0 l/m 0 min 0 min 49 W/m 23,0 km/h (4 Bft) 97,87 %
31.08.2015 19:04 27,5 C 26,1 C 24,4 C 66 % 0 lf 1007,8 hPa 0,0 l/m 0 min 0 min 39 W/m 14,6 km/h (3 Bft) 100,00 %
31.08.2015 19:06 27,3 C 26,1 C 23,9 C 66 % 0 lf 1007,8 hPa 0,0 l/m 0 min 0 min 31 W/m 27,2 km/h (4 Bft) 97,83 %
31.08.2015 19:08 27,2 C 25,6 C 23,9 C 66 % 0 lf 1007,9 hPa 0,0 l/m 0 min 0 min 26 W/m 23,0 km/h (4 Bft) 97,87 %
31.08.2015 19:10 27,0 C 25,6 C 23,9 C 66 % 0 lf 1008,0 hPa 0,0 l/m 0 min 0 min 23 W/m 25,1 km/h (4 Bft) 97,87 %
31.08.2015 19:12 26,8 C 25,6 C 23,9 C 66 % 0 lf 1008,0 hPa 0,0 l/m 0 min 0 min 21 W/m 25,1 km/h (4 Bft) 100,00 %
31.08.2015 19:14 26,7 C 25,6 C 23,9 C 66 % 0 lf 1008,2 hPa 0,0 l/m 0 min 0 min 21 W/m 18,8 km/h (3 Bft) 97,87 %
31.08.2015 19:16 26,5 C 25,0 C 23,9 C 66 % 0 lf 1008,2 hPa 0,0 l/m 0 min 0 min 20 W/m 33,5 km/h (5 Bft) 100,00 %
31.08.2015 19:18 26,3 C 25,0 C 23,3 C 66 % 0 lf 1008,3 hPa 0,0 l/m 0 min 0 min 21 W/m 23,0 km/h (4 Bft) 97,87 %
31.08.2015 19:20 26,1 C 25,0 C 23,3 C 66 % 0 lf 1008,3 hPa 0,0 l/m 0 min 0 min 22 W/m 35,6 km/h (5 Bft) 100,00 %
31.08.2015 19:22 25,9 C 25,0 C 23,3 C 66 % 1 lf 1008,3 hPa 0,0 l/m 0 min 0 min 21 W/m 37,7 km/h (5 Bft) 95,74 %
31.08.2015 19:24 25,7 C 25,0 C 23,3 C 67 % 1 lf 1008,4 hPa 0,0 l/m 0 min 2 min 18 W/m 31,4 km/h (5 Bft) 97,14 %
31.08.2015 19:26 25,5 C 24,4 C 23,3 C 67 % 0 lf 1008,3 hPa 0,0 l/m 0 min 2 min 16 W/m 31,4 km/h (5 Bft) 95,74 %
31.08.2015 19:28 25,4 C 24,4 C 22,8 C 68 % 0 lf 1008,3 hPa 0,0 l/m 0 min 2 min 17 W/m 31,4 km/h (5 Bft) 95,74 %
31.08.2015 19:30 25,3 C 24,4 C 22,8 C 68 % 1 lf 1008,4 hPa 0,0 l/m 0 min 0 min 18 W/m 29,3 km/h (5 Bft) 95,74 %
31.08.2015 19:32 25,2 C 23,9 C 22,8 C 69 % 0 lf 1008,4 hPa 0,0 l/m 0 min 0 min 18 W/m 31,4 km/h (5 Bft) 93,48 %
31.08.2015 19:34 25,1 C 23,9 C 22,2 C 70 % 2 lf 1008,3 hPa 0,0 l/m 0 min 0 min 20 W/m 27,2 km/h (4 Bft) 96,36 %
31.08.2015 19:36 25,0 C 23,9 C 22,2 C 70 % 0 lf 1008,3 hPa 0,0 l/m 0 min 0 min 22 W/m 35,6 km/h (5 Bft) 95,74 %
31.08.2015 19:38 24,9 C 23,9 C 22,2 C 71 % 2 lf 1008,3 hPa 0,0 l/m 0 min 2 min 20 W/m 29,3 km/h (5 Bft) 95,74 %
31.08.2015 19:40 24,8 C 23,9 C 22,2 C 72 % 0 lf 1008,3 hPa 0,0 l/m 0 min 2 min 17 W/m 27,2 km/h (4 Bft) 95,74 %
31.08.2015 19:42 24,7 C 23,3 C 22,2 C 72 % 0 lf 1008,4 hPa 0,0 l/m 0 min 2 min 15 W/m 29,3 km/h (5 Bft) 94,00 %
31.08.2015 19:44 24,6 C 23,3 C 22,2 C 73 % 0 lf 1008,4 hPa 0,0 l/m 0 min 0 min 13 W/m 25,1 km/h (4 Bft) 95,65 %
31.08.2015 19:46 24,4 C 23,3 C 22,2 C 73 % 0 lf 1008,4 hPa 0,0 l/m 0 min 0 min 12 W/m 29,3 km/h (5 Bft) 93,75 %
31.08.2015 19:48 24,4 C 23,3 C 22,2 C 73 % 0 lf 1008,5 hPa 0,0 l/m 0 min 0 min 11 W/m 27,2 km/h (4 Bft) 95,74 %
31.08.2015 19:50 24,3 C 23,3 C 21,7 C 74 % 0 lf 1008,5 hPa 0,0 l/m 0 min 0 min 9 W/m 27,2 km/h (4 Bft) 93,62 %
31.08.2015 19:52 24,1 C 23,3 C 21,7 C 74 % 1 lf 1008,5 hPa 0,0 l/m 0 min 0 min 8 W/m 33,5 km/h (5 Bft) 93,48 %
31.08.2015 19:54 24,0 C 23,3 C 21,7 C 75 % 0 lf 1008,6 hPa 0,0 l/m 0 min 0 min 7 W/m 25,1 km/h (4 Bft) 93,62 %
31.08.2015 19:56 23,9 C 23,3 C 21,7 C 75 % 0 lf 1008,6 hPa 0,0 l/m 0 min 0 min 7 W/m 33,5 km/h (5 Bft) 95,74 %
31.08.2015 19:58 23,8 C 22,8 C 21,7 C 76 % 0 lf 1008,6 hPa 0,0 l/m 0 min 0 min 7 W/m 29,3 km/h (5 Bft) 93,62 %
31.08.2015 20:00 23,7 C 22,8 C 21,7 C 76 % 0 lf 1008,6 hPa 0,0 l/m 0 min 0 min 7 W/m 20,9 km/h (4 Bft) 95,74 %
31.08.2015 20:02 23,6 C 22,8 C 21,7 C 76 % 0 lf 1008,7 hPa 0,0 l/m 0 min 0 min 7 W/m 23,0 km/h (4 Bft) 89,36 %
31.08.2015 20:04 23,6 C 22,8 C 21,7 C 77 % 0 lf 1008,7 hPa 0,0 l/m 0 min 0 min 7 W/m 31,4 km/h (5 Bft) 93,48 %
31.08.2015 20:06 23,4 C 22,8 C 21,1 C 77 % 0 lf 1008,6 hPa 0,0 l/m 0 min 0 min 7 W/m 31,4 km/h (5 Bft) 93,62 %
31.08.2015 20:08 23,4 C 22,8 C 21,1 C 78 % 0 lf 1008,7 hPa 0,0 l/m 0 min 0 min 7 W/m 27,2 km/h (4 Bft) 93,62 %
31.08.2015 20:10 23,3 C 22,2 C 21,1 C 78 % 0 lf 1008,6 hPa 0,0 l/m 0 min 0 min 6 W/m 12,6 km/h (3 Bft) 95,74 %
31.08.2015 20:12 23,2 C 22,2 C 21,1 C 78 % 0 lf 1008,6 hPa 0,0 l/m 0 min 0 min 5 W/m 23,0 km/h (4 Bft) 91,49 %
31.08.2015 20:14 23,2 C 22,2 C 21,1 C 79 % 0 lf 1008,5 hPa 0,0 l/m 0 min 0 min 3 W/m 23,0 km/h (4 Bft) 93,62 %
31.08.2015 20:16 23,1 C 22,2 C 21,1 C 79 % 0 lf 1008,6 hPa 0,0 l/m 0 min 0 min 0 W/m 12,6 km/h (3 Bft) 91,30 %
31.08.2015 20:18 23,1 C 22,2 C 21,1 C 79 % 0 lf 1008,6 hPa 0,0 l/m 0 min 0 min 0 W/m 14,6 km/h (3 Bft) 93,62 %
31.08.2015 20:20 23,0 C 22,2 C 21,1 C 79 % 0 lf 1008,8 hPa 0,0 l/m 0 min 0 min 0 W/m 16,7 km/h (3 Bft) 91,43 %
31.08.2015 20:22 22,9 C 22,2 C 21,1 C 80 % 0 lf 1008,8 hPa 0,0 l/m 0 min 0 min 0 W/m 16,7 km/h (3 Bft) 93,62 %
31.08.2015 20:24 22,8 C 22,2 C 21,1 C 80 % 0 lf 1008,8 hPa 0,0 l/m 0 min 0 min 0 W/m 12,6 km/h (3 Bft) 95,74 %
31.08.2015 20:26 22,8 C 22,2 C 20,6 C 81 % 0 lf 1009,0 hPa 0,0 l/m 0 min 0 min 0 W/m 12,6 km/h (3 Bft) 93,62 %
31.08.2015 20:28 22,7 C 21,7 C 20,6 C 81 % 1 lf 1009,0 hPa 0,0 l/m 0 min 0 min 0 W/m 18,8 km/h (3 Bft) 97,87 %
31.08.2015 20:30 22,7 C 21,7 C 20,6 C 81 % 0 lf 1009,0 hPa 0,0 l/m 0 min 0 min 0 W/m 14,6 km/h (3 Bft) 94,44 %
31.08.2015 20:32 22,6 C 21,7 C 20,6 C 82 % 0 lf 1009,0 hPa 0,0 l/m 0 min 0 min 0 W/m 18,8 km/h (3 Bft) 100,00 %
31.08.2015 20:34 22,6 C 21,7 C 20,6 C 82 % 0 lf 1009,0 hPa 0,0 l/m 0 min 0 min 0 W/m 18,8 km/h (3 Bft) 95,74 %
31.08.2015 20:36 22,4 C 21,7 C 20,6 C 83 % 0 lf 1009,0 hPa 0,0 l/m 0 min 0 min 0 W/m 23,0 km/h (4 Bft) 100,00 %
31.08.2015 20:38 22,4 C 21,7 C 20,6 C 83 % 0 lf 1009,0 hPa 0,0 l/m 0 min 0 min 0 W/m 14,6 km/h (3 Bft) 97,87 %
31.08.2015 20:40 22,3 C 21,7 C 20,6 C 83 % 0 lf 1009,0 hPa 0,0 l/m 0 min 0 min 0 W/m 10,5 km/h (2 Bft) 95,74 %
31.08.2015 20:42 22,3 C 21,7 C 20,6 C 84 % 0 lf 1009,0 hPa 0,0 l/m 0 min 0 min 0 W/m 14,6 km/h (3 Bft) 100,00 %
31.08.2015 20:44 22,2 C 21,1 C 20,6 C 84 % 0 lf 1009,0 hPa 0,0 l/m 0 min 0 min 0 W/m 12,6 km/h (3 Bft) 97,83 %
31.08.2015 20:46 22,2 C 21,1 C 20,6 C 84 % 0 lf 1009,1 hPa 0,0 l/m 0 min 0 min 0 W/m 12,6 km/h (3 Bft) 95,74 %
31.08.2015 20:48 22,1 C 21,1 C 20,6 C 84 % 0 lf 1009,1 hPa 0,0 l/m 0 min 0 min 0 W/m 16,7 km/h (3 Bft) 97,87 %
31.08.2015 20:50 22,1 C 21,1 C 20,6 C 84 % 3 lf 1009,1 hPa 0,0 l/m 0 min 0 min 0 W/m 18,8 km/h (3 Bft) 97,87 %
31.08.2015 20:52 22,1 C 21,1 C 20,6 C 85 % 1 lf 1009,1 hPa 0,0 l/m 0 min 0 min 0 W/m 10,5 km/h (2 Bft) 97,87 %
31.08.2015 20:54 22,0 C 21,1 C 20,6 C 85 % 0 lf 1009,1 hPa 0,0 l/m 0 min 0 min 0 W/m 12,6 km/h (3 Bft) 95,74 %
31.08.2015 20:56 22,0 C 21,1 C 20,0 C 85 % 0 lf 1009,1 hPa 0,0 l/m 0 min 0 min 0 W/m 16,7 km/h (3 Bft) 97,92 %
31.08.2015 20:58 21,9 C 21,1 C 20,0 C 85 % 0 lf 1009,1 hPa 0,0 l/m 0 min 0 min 0 W/m 20,9 km/h (4 Bft) 97,87 %
31.08.2015 21:00 21,9 C 21,1 C 20,0 C 85 % 0 lf 1009,0 hPa 0,0 l/m 0 min 0 min 0 W/m 18,8 km/h (3 Bft) 93,62 %
31.08.2015 21:02 21,8 C 21,1 C 20,0 C 85 % 12 lf 1009,1 hPa 0,0 l/m 0 min 2 min 0 W/m 14,6 km/h (3 Bft) 97,87 %
31.08.2015 21:04 21,8 C 20,0 C 19,4 C 86 % 15 lf 1009,0 hPa 0,0 l/m 0 min 2 min 0 W/m 18,8 km/h (3 Bft) 93,62 %
31.08.2015 21:06 21,8 C 20,0 C 18,9 C 86 % 15 lf 1009,0 hPa 0,0 l/m 0 min 2 min 0 W/m 14,6 km/h (3 Bft) 97,83 %
31.08.2015 21:08 21,8 C 20,0 C 18,9 C 87 % 15 lf 1009,0 hPa 0,0 l/m 0 min 2 min 0 W/m 18,8 km/h (3 Bft) 95,74 %
31.08.2015 21:10 21,8 C 20,0 C 18,9 C 87 % 15 lf 1009,0 hPa 0,0 l/m 0 min 0 min 0 W/m 14,6 km/h (3 Bft) 97,87 %
31.08.2015 21:12 21,7 C 20,0 C 18,9 C 87 % 15 lf 1009,1 hPa 0,0 l/m 0 min 0 min 0 W/m 12,6 km/h (3 Bft) 97,87 %
31.08.2015 21:14 21,7 C 20,0 C 18,3 C 87 % 15 lf 1009,0 hPa 0,0 l/m 0 min 0 min 0 W/m 14,6 km/h (3 Bft) 97,87 %
31.08.2015 21:16 21,6 C 20,0 C 18,3 C 88 % 15 lf 1009,0 hPa 0,0 l/m 0 min 0 min 0 W/m 14,6 km/h (3 Bft) 97,87 %
31.08.2015 21:18 21,6 C 19,4 C 18,3 C 88 % 15 lf 1009,0 hPa 0,0 l/m 0 min 0 min 0 W/m 18,8 km/h (3 Bft) 97,83 %
31.08.2015 21:20 21,5 C 19,4 C 18,3 C 88 % 15 lf 1009,1 hPa 0,0 l/m 0 min 0 min 0 W/m 10,5 km/h (2 Bft) 93,62 %
31.08.2015 21:22 21,5 C 19,4 C 18,3 C 88 % 15 lf 1009,1 hPa 0,0 l/m 0 min 0 min 0 W/m 10,5 km/h (2 Bft) 95,74 %
31.08.2015 21:24 21,4 C 19,4 C 18,3 C 88 % 15 lf 1009,1 hPa 0,0 l/m 0 min 0 min 0 W/m 8,4 km/h (2 Bft) 97,87 %
31.08.2015 21:26 21,4 C 19,4 C 18,3 C 88 % 15 lf 1009,0 hPa 0,0 l/m 0 min 0 min 0 W/m 12,6 km/h (3 Bft) 97,96 %
31.08.2015 21:28 21,4 C 19,4 C 18,3 C 88 % 15 lf 1009,1 hPa 0,0 l/m 0 min 0 min 0 W/m 14,6 km/h (3 Bft) 97,87 %
31.08.2015 21:30 21,3 C 19,4 C 18,3 C 88 % 15 lf 1009,1 hPa 0,0 l/m 0 min 0 min 0 W/m 12,6 km/h (3 Bft) 97,87 %
31.08.2015 21:32 21,3 C 19,4 C 18,3 C 88 % 15 lf 1009,1 hPa 0,0 l/m 0 min 0 min 0 W/m 14,6 km/h (3 Bft) 97,87 %
31.08.2015 21:34 21,2 C 20,0 C 18,3 C 89 % 15 lf 1009,1 hPa 0,0 l/m 0 min 0 min 0 W/m 14,6 km/h (3 Bft) 97,87 %
31.08.2015 21:36 21,2 C 20,0 C 18,3 C 89 % 15 lf 1009,1 hPa 0,0 l/m 0 min 0 min 0 W/m 12,6 km/h (3 Bft) 100,00 %
31.08.2015 21:38 21,1 C 19,4 C 18,3 C 89 % 15 lf 1009,1 hPa 0,0 l/m 0 min 0 min 0 W/m 12,6 km/h (3 Bft) 97,83 %
31.08.2015 21:40 21,1 C 20,0 C 18,3 C 89 % 15 lf 1009,2 hPa 0,0 l/m 0 min 0 min 0 W/m 8,4 km/h (2 Bft) 100,00 %
31.08.2015 21:42 21,1 C 19,4 C 18,3 C 89 % 15 lf 1009,2 hPa 0,0 l/m 0 min 0 min 0 W/m 10,5 km/h (2 Bft) 97,14 %
31.08.2015 21:44 21,0 C 19,4 C 18,3 C 89 % 15 lf 1009,1 hPa 0,0 l/m 0 min 0 min 0 W/m 8,4 km/h (2 Bft) 95,74 %
31.08.2015 21:46 21,0 C 19,4 C 18,3 C 89 % 15 lf 1009,2 hPa 0,0 l/m 0 min 0 min 0 W/m 10,5 km/h (2 Bft) 97,87 %
31.08.2015 21:48 21,0 C 19,4 C 18,3 C 89 % 15 lf 1009,1 hPa 0,0 l/m 0 min 0 min 0 W/m 12,6 km/h (3 Bft) 100,00 %
31.08.2015 21:50 20,9 C 19,4 C 18,3 C 89 % 15 lf 1009,2 hPa 0,0 l/m 0 min 0 min 0 W/m 10,5 km/h (2 Bft) 95,74 %
31.08.2015 21:52 20,9 C 19,4 C 18,3 C 90 % 15 lf 1009,2 hPa 0,0 l/m 0 min 0 min 0 W/m 10,5 km/h (2 Bft) 100,00 %
31.08.2015 21:54 20,9 C 19,4 C 18,3 C 90 % 15 lf 1009,2 hPa 0,0 l/m 0 min 0 min 0 W/m 12,6 km/h (3 Bft) 100,00 %
31.08.2015 21:56 20,8 C 19,4 C 18,3 C 90 % 15 lf 1009,2 hPa 0,0 l/m 0 min 0 min 0 W/m 10,5 km/h (2 Bft) 100,00 %
31.08.2015 21:58 20,8 C 19,4 C 18,3 C 90 % 14 lf 1009,2 hPa 0,0 l/m 0 min 0 min 0 W/m 10,5 km/h (2 Bft) 95,74 %
31.08.2015 22:00 20,8 C 19,4 C 18,3 C 90 % 14 lf 1009,3 hPa 0,0 l/m 0 min 0 min 0 W/m 12,6 km/h (3 Bft) 100,00 %
31.08.2015 22:02 20,7 C 19,4 C 18,3 C 90 % 12 lf 1009,3 hPa 0,0 l/m 0 min 0 min 0 W/m 12,6 km/h (3 Bft) 97,87 %
31.08.2015 22:04 20,7 C 19,4 C 18,3 C 90 % 10 lf 1009,2 hPa 0,0 l/m 0 min 0 min 0 W/m 12,6 km/h (3 Bft) 97,83 %
31.08.2015 22:06 20,7 C 19,4 C 18,3 C 90 % 9 lf 1009,2 hPa 0,0 l/m 0 min 0 min 0 W/m 10,5 km/h (2 Bft) 95,74 %
31.08.2015 22:08 20,7 C 19,4 C 18,3 C 90 % 4 lf 1009,2 hPa 0,0 l/m 0 min 0 min 0 W/m 12,6 km/h (3 Bft) 95,74 %
31.08.2015 22:10 20,7 C 19,4 C 18,3 C 90 % 3 lf 1009,2 hPa 0,0 l/m 0 min 0 min 0 W/m 8,4 km/h (2 Bft) 97,87 %
31.08.2015 22:12 20,6 C 19,4 C 18,3 C 90 % 2 lf 1009,2 hPa 0,0 l/m 0 min 0 min 0 W/m 10,5 km/h (2 Bft) 100,00 %
31.08.2015 22:14 20,6 C 19,4 C 18,3 C 90 % 1 lf 1009,2 hPa 0,0 l/m 0 min 0 min 0 W/m 12,6 km/h (3 Bft) 97,87 %
31.08.2015 22:16 20,6 C 19,4 C 18,3 C 90 % 1 lf 1009,1 hPa 0,0 l/m 0 min 0 min 0 W/m 10,5 km/h (2 Bft) 97,83 %
31.08.2015 22:18 20,6 C 20,0 C 18,3 C 91 % 1 lf 1009,1 hPa 0,0 l/m 0 min 0 min 0 W/m 12,6 km/h (3 Bft) 93,62 %
31.08.2015 22:20 20,6 C 20,0 C 18,3 C 91 % 1 lf 1009,2 hPa 0,0 l/m 0 min 0 min 0 W/m 10,5 km/h (2 Bft) 97,87 %
31.08.2015 22:22 20,5 C 20,0 C 17,8 C 91 % 1 lf 1009,1 hPa 0,0 l/m 0 min 0 min 0 W/m 8,4 km/h (2 Bft) 97,87 %
31.08.2015 22:24 20,5 C 20,0 C 17,8 C 91 % 1 lf 1009,0 hPa 0,0 l/m 0 min 0 min 0 W/m 12,6 km/h (3 Bft) 95,74 %
31.08.2015 22:26 20,4 C 20,0 C 17,8 C 91 % 0 lf 1009,1 hPa 0,0 l/m 0 min 0 min 0 W/m 10,5 km/h (2 Bft) 97,87 %
31.08.2015 22:28 20,4 C 20,0 C 17,8 C 91 % 0 lf 1009,1 hPa 0,0 l/m 0 min 0 min 0 W/m 12,6 km/h (3 Bft) 98,15 %
31.08.2015 22:30 20,4 C 20,0 C 17,8 C 91 % 0 lf 1009,0 hPa 0,0 l/m 0 min 0 min 0 W/m 14,6 km/h (3 Bft) 97,83 %
31.08.2015 22:32 20,4 C 20,0 C 17,8 C 91 % 0 lf 1009,0 hPa 0,0 l/m 0 min 0 min 0 W/m 10,5 km/h (2 Bft) 95,74 %
31.08.2015 22:34 20,4 C 20,0 C 17,8 C 91 % 0 lf 1009,0 hPa 0,0 l/m 0 min 0 min 0 W/m 18,8 km/h (3 Bft) 97,87 %
31.08.2015 22:36 20,3 C 20,0 C 17,8 C 91 % 0 lf 1009,1 hPa 0,0 l/m 0 min 0 min 0 W/m 16,7 km/h (3 Bft) 100,00 %
31.08.2015 22:38 20,3 C 20,0 C 17,8 C 91 % 0 lf 1009,1 hPa 0,0 l/m 0 min 0 min 0 W/m 16,7 km/h (3 Bft) 98,00 %
31.08.2015 22:40 20,3 C 20,0 C 17,8 C 91 % 0 lf 1009,1 hPa 0,0 l/m 0 min 0 min 0 W/m 18,8 km/h (3 Bft) 93,48 %
31.08.2015 22:42 20,3 C 20,0 C 17,8 C 91 % 0 lf 1009,0 hPa 0,0 l/m 0 min 0 min 0 W/m 14,6 km/h (3 Bft) 97,87 %
31.08.2015 22:44 20,3 C 20,0 C 17,8 C 91 % 0 lf 1009,0 hPa 0,0 l/m 0 min 0 min 0 W/m 14,6 km/h (3 Bft) 97,87 %
31.08.2015 22:46 20,3 C 20,0 C 17,8 C 91 % 0 lf 1009,0 hPa 0,0 l/m 0 min 0 min 0 W/m 12,6 km/h (3 Bft) 93,62 %
31.08.2015 22:48 20,3 C 20,0 C 17,8 C 91 % 0 lf 1009,0 hPa 0,0 l/m 0 min 0 min 0 W/m 14,6 km/h (3 Bft) 97,87 %
31.08.2015 22:50 20,3 C 20,0 C 18,3 C 92 % 0 lf 1009,0 hPa 0,0 l/m 0 min 0 min 0 W/m 12,6 km/h (3 Bft) 97,87 %
31.08.2015 22:52 20,3 C 20,0 C 18,3 C 92 % 0 lf 1009,0 hPa 0,0 l/m 0 min 0 min 0 W/m 12,6 km/h (3 Bft) 97,83 %
31.08.2015 22:54 20,2 C 20,0 C 18,3 C 92 % 0 lf 1009,1 hPa 0,0 l/m 0 min 0 min 0 W/m 14,6 km/h (3 Bft) 93,62 %
31.08.2015 22:56 20,2 C 20,0 C 18,3 C 92 % 0 lf 1009,1 hPa 0,0 l/m 0 min 0 min 0 W/m 14,6 km/h (3 Bft) 93,62 %
31.08.2015 22:58 20,2 C 20,0 C 18,3 C 92 % 0 lf 1009,0 hPa 0,0 l/m 0 min 0 min 0 W/m 10,5 km/h (2 Bft) 91,49 %
31.08.2015 23:00 20,2 C 20,0 C 18,3 C 92 % 0 lf 1009,0 hPa 0,0 l/m 0 min 0 min 0 W/m 12,6 km/h (3 Bft) 91,49 %
31.08.2015 23:02 20,2 C 20,0 C 18,3 C 92 % 0 lf 1009,1 hPa 0,0 l/m 0 min 0 min 0 W/m 12,6 km/h (3 Bft) 95,74 %
31.08.2015 23:04 20,2 C 20,0 C 18,3 C 92 % 0 lf 1009,0 hPa 0,0 l/m 0 min 0 min 0 W/m 10,5 km/h (2 Bft) 95,65 %
31.08.2015 23:06 20,2 C 20,0 C 18,3 C 92 % 0 lf 1009,0 hPa 0,0 l/m 0 min 0 min 0 W/m 12,6 km/h (3 Bft) 93,62 %
31.08.2015 23:08 20,2 C 20,0 C 18,3 C 92 % 0 lf 1009,1 hPa 0,0 l/m 0 min 0 min 0 W/m 14,6 km/h (3 Bft) 95,74 %
31.08.2015 23:10 20,2 C 20,0 C 18,3 C 92 % 0 lf 1009,1 hPa 0,0 l/m 0 min 0 min 0 W/m 16,7 km/h (3 Bft) 95,74 %
31.08.2015 23:12 20,2 C 20,0 C 18,3 C 92 % 0 lf 1009,1 hPa 0,0 l/m 0 min 0 min 0 W/m 12,6 km/h (3 Bft) 95,74 %
31.08.2015 23:14 20,2 C 20,0 C 18,3 C 92 % 0 lf 1009,1 hPa 0,0 l/m 0 min 0 min 0 W/m 14,6 km/h (3 Bft) 93,62 %
31.08.2015 23:16 20,2 C 20,0 C 18,3 C 92 % 0 lf 1009,1 hPa 0,0 l/m 0 min 0 min 0 W/m 14,6 km/h (3 Bft) 91,30 %
31.08.2015 23:18 20,2 C 20,6 C 18,3 C 92 % 0 lf 1009,1 hPa 0,0 l/m 0 min 0 min 0 W/m 12,6 km/h (3 Bft) 95,74 %
31.08.2015 23:20 20,2 C 20,6 C 18,3 C 92 % 0 lf 1009,1 hPa 0,0 l/m 0 min 0 min 0 W/m 14,6 km/h (3 Bft) 95,74 %
31.08.2015 23:22 20,3 C 20,6 C 18,9 C 92 % 0 lf 1009,1 hPa 0,0 l/m 0 min 0 min 0 W/m 14,6 km/h (3 Bft) 93,62 %
31.08.2015 23:24 20,3 C 20,6 C 18,9 C 92 % 0 lf 1009,1 hPa 0,0 l/m 0 min 0 min 0 W/m 12,6 km/h (3 Bft) 95,74 %
31.08.2015 23:26 20,3 C 20,6 C 18,9 C 93 % 0 lf 1009,1 hPa 0,0 l/m 0 min 0 min 0 W/m 20,9 km/h (4 Bft) 93,48 %
31.08.2015 23:28 20,3 C 20,6 C 18,9 C 93 % 0 lf 1009,2 hPa 0,0 l/m 0 min 0 min 0 W/m 20,9 km/h (4 Bft) 93,62 %
31.08.2015 23:30 20,3 C 20,6 C 18,9 C 93 % 0 lf 1009,1 hPa 0,0 l/m 0 min 0 min 0 W/m 16,7 km/h (3 Bft) 97,87 %
31.08.2015 23:32 20,4 C 20,6 C 18,9 C 93 % 0 lf 1009,1 hPa 0,0 l/m 0 min 0 min 0 W/m 14,6 km/h (3 Bft) 97,87 %
31.08.2015 23:34 20,4 C 20,6 C 18,9 C 93 % 0 lf 1009,1 hPa 0,0 l/m 0 min 0 min 0 W/m 16,7 km/h (3 Bft) 95,74 %
31.08.2015 23:36 20,4 C 20,6 C 18,9 C 93 % 0 lf 1009,1 hPa 0,0 l/m 0 min 0 min 0 W/m 20,9 km/h (4 Bft) 95,74 %
31.08.2015 23:38 20,4 C 20,6 C 18,9 C 93 % 0 lf 1009,1 hPa 0,0 l/m 0 min 0 min 0 W/m 14,6 km/h (3 Bft) 95,65 %
31.08.2015 23:40 20,4 C 20,6 C 18,9 C 93 % 0 lf 1009,1 hPa 0,0 l/m 0 min 0 min 0 W/m 16,7 km/h (3 Bft) 93,62 %
31.08.2015 23:42 20,4 C 20,6 C 18,9 C 93 % 0 lf 1009,1 hPa 0,0 l/m 0 min 0 min 0 W/m 18,8 km/h (3 Bft) 95,74 %
31.08.2015 23:44 20,5 C 20,6 C 18,9 C 93 % 0 lf 1009,1 hPa 0,0 l/m 0 min 0 min 0 W/m 12,6 km/h (3 Bft) 93,62 %
31.08.2015 23:46 20,5 C 20,6 C 18,9 C 93 % 0 lf 1009,1 hPa 0,0 l/m 0 min 0 min 0 W/m 23,0 km/h (4 Bft) 95,74 %
31.08.2015 23:48 20,5 C 20,6 C 18,9 C 93 % 0 lf 1009,1 hPa 0,0 l/m 0 min 0 min 0 W/m 12,6 km/h (3 Bft) 95,74 %
31.08.2015 23:50 20,5 C 20,6 C 18,9 C 93 % 0 lf 1009,1 hPa 0,0 l/m 0 min 0 min 0 W/m 14,6 km/h (3 Bft) 97,83 %
31.08.2015 23:52 20,5 C 20,0 C 18,9 C 93 % 0 lf 1009,0 hPa 0,0 l/m 0 min 0 min 0 W/m 14,6 km/h (3 Bft) 95,74 %
31.08.2015 23:54 20,5 C 20,6 C 18,9 C 93 % 0 lf 1009,1 hPa 0,0 l/m 0 min 0 min 0 W/m 10,5 km/h (2 Bft) 93,62 %
31.08.2015 23:56 20,5 C 20,6 C 19,4 C 93 % 0 lf 1009,1 hPa 0,0 l/m 0 min 0 min 0 W/m 12,6 km/h (3 Bft) 93,62 %
31.08.2015 23:58 20,5 C 20,6 C 19,4 C 93 % 0 lf 1009,1 hPa 0,0 l/m 0 min 0 min 0 W/m 12,6 km/h (3 Bft) 93,62 %
_ Min-Zeit 07:32 04:36 06:46 16:14 00:30 18:22 - - - - 00:00 01:26
Minimum _ 19,3 C 18,9 C 17,2 C 44 % 0 lf 1006,7 hPa - - - - 0,0 km/h (0 Bft) 88,14 %
_ Max-Zeit 15:04 14:02 11:40 08:34 21:04 00:48 00:00 07:14 19:24 13:14 18:46 00:32
Maximum _ 33,8 C 41,7 C 35,0 C 95 % 15 lf 1014,7 hPa 0,0 l/m 2 min 2 min 741 W/m 43,9 km/h
W-SW (6 Bft)
100,00 %
Durchschnitt _ 24,9 C 26,7 C 23,6 C 75 % 1 lf 1010,0 hPa #0,0 l/m #10:17 h #20 min. 403 W/m 14,7 km/h (3 Bft) 96,39 %
© 2015 W. Hausmann